Observation data for Lake McClellan 2NW on 11/09/2019      Previous  Date       Current Mesonet Observations  Soil Data  Daily Summary Page  Observations in Plain Language
KMC5 090600Z 27013KT 05/04 A3025 RMK A01 T00530037  RH  090%=      5-min Rain = 0
KMC5 090601Z 27012KT 05/04 A3025 RMK A01 T00530037  RH  089%=      5-min Rain = 0
KMC5 090602Z 27012KT 05/04 A3025 RMK A01 T00530036  RH  089%=      5-min Rain = 0
KMC5 090603Z 27012KT 05/04 A3024 RMK A01 T00520035  RH  089%=      5-min Rain = 0
KMC5 090604Z 27011KT 05/04 A3024 RMK A01 T00520036  RH  089%=      5-min Rain = 0
KMC5 090605Z 27012KT 05/04 A3024 RMK A01 T00520035  RH  089%=      5-min Rain = 0
KMC5 090606Z 27012KT 05/04 A3024 RMK A01 T00510036  RH  090%=      5-min Rain = 0
KMC5 090607Z 27012KT 05/04 A3024 RMK A01 T00510036  RH  090%=      5-min Rain = 0
KMC5 090608Z 27011KT 05/04 A3024 RMK A01 T00520036  RH  089%=      5-min Rain = 0
KMC5 090609Z 27011KT 05/04 A3024 RMK A01 T00520036  RH  090%=      5-min Rain = 0
KMC5 090610Z 27010KT 05/04 A3024 RMK A01 T00510035  RH  089%=      5-min Rain = 0
KMC5 090611Z 26010KT 05/03 A3024 RMK A01 T00500034  RH  089%=      5-min Rain = 0
KMC5 090612Z 26010KT 05/03 A3024 RMK A01 T00480033  RH  089%=      5-min Rain = 0
KMC5 090613Z 26011KT 05/03 A3024 RMK A01 T00470032  RH  090%=      5-min Rain = 0
KMC5 090614Z 26011KT 05/03 A3024 RMK A01 T00470033  RH  091%=      5-min Rain = 0
KMC5 090615Z 26012KT 05/03 A3024 RMK A01 T00460032  RH  091%=      5-min Rain = 0
KMC5 090616Z 26012KT 05/03 A3024 RMK A01 T00460033  RH  091%=      5-min Rain = 0
KMC5 090617Z 26011KT 05/03 A3024 RMK A01 T00460034  RH  091%=      5-min Rain = 0
KMC5 090618Z 26011KT 05/03 A3024 RMK A01 T00470034  RH  091%=      5-min Rain = 0
KMC5 090619Z 26011KT 05/04 A3024 RMK A01 T00480035  RH  091%=      5-min Rain = 0
KMC5 090620Z 26011KT 05/03 A3024 RMK A01 T00490034  RH  090%=      5-min Rain = 0
KMC5 090621Z 26010KT 05/03 A3024 RMK A01 T00480034  RH  090%=      5-min Rain = 0
KMC5 090622Z 26010KT 05/03 A3024 RMK A01 T00480033  RH  090%=      5-min Rain = 0
KMC5 090623Z 26010KT 05/03 A3024 RMK A01 T00470033  RH  090%=      5-min Rain = 0
KMC5 090624Z 27010KT 05/03 A3024 RMK A01 T00470033  RH  090%=      5-min Rain = 0
KMC5 090625Z 27009KT 05/03 A3024 RMK A01 T00460032  RH  090%=      5-min Rain = 0
KMC5 090626Z 27009KT 05/03 A3024 RMK A01 T00450031  RH  090%=      5-min Rain = 0
KMC5 090627Z 27010KT 05/03 A3024 RMK A01 T00450031  RH  090%=      5-min Rain = 0
KMC5 090628Z 27010KT 04/03 A3024 RMK A01 T00440030  RH  091%=      5-min Rain = 0
KMC5 090629Z 27011KT 04/03 A3024 RMK A01 T00440031  RH  091%=      5-min Rain = 0
KMC5 090630Z 27012KT 04/03 A3024 RMK A01 T00440031  RH  091%=      5-min Rain = 0
KMC5 090631Z 27012KT 05/03 A3024 RMK A01 T00460033  RH  091%=      5-min Rain = 0
KMC5 090632Z 28012KT 05/03 A3024 RMK A01 T00460032  RH  090%=      5-min Rain = 0
KMC5 090633Z 28012KT 05/03 A3024 RMK A01 T00470032  RH  090%=      5-min Rain = 0
KMC5 090634Z 28012KT 05/03 A3024 RMK A01 T00460031  RH  090%=      5-min Rain = 0
KMC5 090635Z 28013KT 05/03 A3024 RMK A01 T00460031  RH  090%=      5-min Rain = 0
KMC5 090636Z 28013KT 05/03 A3024 RMK A01 T00460031  RH  090%=      5-min Rain = 0
KMC5 090637Z 28012KT 05/03 A3024 RMK A01 T00460031  RH  090%=      5-min Rain = 0
KMC5 090638Z 28012KT 05/03 A3024 RMK A01 T00470031  RH  090%=      5-min Rain = 0
KMC5 090639Z 28012KT 05/03 A3024 RMK A01 T00460030  RH  089%=      5-min Rain = 0
KMC5 090640Z 28012KT 05/03 A3024 RMK A01 T00460031  RH  090%=      5-min Rain = 0
KMC5 090641Z 28011KT 05/03 A3024 RMK A01 T00470032  RH  090%=      5-min Rain = 0
KMC5 090642Z 28011KT 05/03 A3024 RMK A01 T00480032  RH  090%=      5-min Rain = 0
KMC5 090643Z 28011KT 05/03 A3024 RMK A01 T00490033  RH  089%=      5-min Rain = 0
KMC5 090644Z 28011KT 05/03 A3024 RMK A01 T00490033  RH  089%=      5-min Rain = 0
KMC5 090645Z 28011KT 05/03 A3024 RMK A01 T00490032  RH  089%=      5-min Rain = 0
KMC5 090646Z 28010KT 05/03 A3024 RMK A01 T00490032  RH  089%=      5-min Rain = 0
KMC5 090647Z 29010KT 05/03 A3024 RMK A01 T00490032  RH  089%=      5-min Rain = 0
KMC5 090648Z 28011KT 05/03 A3024 RMK A01 T00480031  RH  089%=      5-min Rain = 0
KMC5 090649Z 28012KT 05/03 A3024 RMK A01 T00480031  RH  089%=      5-min Rain = 0
KMC5 090650Z 28012KT 05/03 A3024 RMK A01 T00490032  RH  089%=      5-min Rain = 0
KMC5 090651Z 28011KT 05/03 A3024 RMK A01 T00490032  RH  088%=      5-min Rain = 0
KMC5 090652Z 28011KT 05/03 A3024 RMK A01 T00490031  RH  088%=      5-min Rain = 0
KMC5 090653Z 28011KT 05/03 A3024 RMK A01 T00470029  RH  088%=      5-min Rain = 0
KMC5 090654Z 28011KT 05/03 A3024 RMK A01 T00450028  RH  088%=      5-min Rain = 0
KMC5 090655Z 28011KT 04/03 A3024 RMK A01 T00440027  RH  089%=      5-min Rain = 0
KMC5 090656Z 28010KT 04/03 A3024 RMK A01 T00430027  RH  089%=      5-min Rain = 0
KMC5 090657Z 28011KT 04/03 A3024 RMK A01 T00420028  RH  090%=      5-min Rain = 0
KMC5 090658Z 28011KT 04/03 A3024 RMK A01 T00440031  RH  091%=      5-min Rain = 0
KMC5 090659Z 29011KT 05/03 A3024 RMK A01 T00480033  RH  090%=      5-min Rain = 0
KMC5 090700Z 29011KT 05/03 A3024 RMK A01 T00490032  RH  089%=      5-min Rain = 0
KMC5 090701Z 28011KT 05/03 A3024 RMK A01 T00490031  RH  088%=      5-min Rain = 0
KMC5 090702Z 28011KT 05/03 A3024 RMK A01 T00480030  RH  088%=      5-min Rain = 0
KMC5 090703Z 28011KT 05/03 A3024 RMK A01 T00460028  RH  088%=      5-min Rain = 0
KMC5 090704Z 28011KT 05/03 A3024 RMK A01 T00450027  RH  088%=      5-min Rain = 0
KMC5 090705Z 28011KT 04/03 A3024 RMK A01 T00430026  RH  089%=      5-min Rain = 0
KMC5 090706Z 28012KT 04/03 A3024 RMK A01 T00430026  RH  089%=      5-min Rain = 0
KMC5 090707Z 28013KT 04/03 A3024 RMK A01 T00420026  RH  089%=      5-min Rain = 0
KMC5 090708Z 28013KT 04/03 A3024 RMK A01 T00410026  RH  090%=      5-min Rain = 0
KMC5 090709Z 28012KT 04/03 A3024 RMK A01 T00410026  RH  090%=      5-min Rain = 0
KMC5 090710Z 28013KT 04/03 A3024 RMK A01 T00410026  RH  090%=      5-min Rain = 0
KMC5 090711Z 28012KT 04/03 A3024 RMK A01 T00420027  RH  090%=      5-min Rain = 0
KMC5 090712Z 27011KT 04/03 A3024 RMK A01 T00440028  RH  089%=      5-min Rain = 0
KMC5 090713Z 27011KT 04/03 A3024 RMK A01 T00440028  RH  089%=      5-min Rain = 0
KMC5 090714Z 27012KT 04/03 A3024 RMK A01 T00440028  RH  089%=      5-min Rain = 0
KMC5 090715Z 27011KT 05/03 A3024 RMK A01 T00450028  RH  089%=      5-min Rain = 0
KMC5 090719Z 27012KT 04/02 A3024 RMK A01 T00370023  RH  090%=      5-min Rain = 0
KMC5 090720Z 27012KT 04/02 A3024 RMK A01 T00370023  RH  091%=      5-min Rain = 0
KMC5 090721Z 28012KT 04/02 A3024 RMK A01 T00370023  RH  091%=      5-min Rain = 0
KMC5 090722Z 28012KT 04/02 A3024 RMK A01 T00370024  RH  091%=      5-min Rain = 0
KMC5 090723Z 28012KT 04/03 A3024 RMK A01 T00390027  RH  092%=      5-min Rain = 0
KMC5 090724Z 28011KT 04/03 A3024 RMK A01 T00410028  RH  091%=      5-min Rain = 0
KMC5 090725Z 28011KT 04/03 A3024 RMK A01 T00420027  RH  090%=      5-min Rain = 0
KMC5 090726Z 28011KT 04/03 A3024 RMK A01 T00420027  RH  090%=      5-min Rain = 0
KMC5 090727Z 28010KT 04/03 A3024 RMK A01 T00430027  RH  090%=      5-min Rain = 0
KMC5 090728Z 28011KT 04/03 A3024 RMK A01 T00420027  RH  090%=      5-min Rain = 0
KMC5 090729Z 28011KT 04/03 A3024 RMK A01 T00420027  RH  090%=      5-min Rain = 0
KMC5 090730Z 28012KT 04/03 A3023 RMK A01 T00430027  RH  089%=      5-min Rain = 0
KMC5 090731Z 28012KT 04/03 A3023 RMK A01 T00430027  RH  089%=      5-min Rain = 0
KMC5 090732Z 28012KT 04/03 A3023 RMK A01 T00430027  RH  089%=      5-min Rain = 0
KMC5 090733Z 28012KT 04/03 A3023 RMK A01 T00430026  RH  089%=      5-min Rain = 0
KMC5 090734Z 28012KT 04/03 A3023 RMK A01 T00430027  RH  089%=      5-min Rain = 0
KMC5 090735Z 28012KT 04/03 A3023 RMK A01 T00430027  RH  089%=      5-min Rain = 0
KMC5 090736Z 28012KT 04/03 A3023 RMK A01 T00440027  RH  089%=      5-min Rain = 0
KMC5 090737Z 28011KT 04/03 A3023 RMK A01 T00440027  RH  089%=      5-min Rain = 0
KMC5 090738Z 28011KT 04/03 A3023 RMK A01 T00440027  RH  088%=      5-min Rain = 0
KMC5 090739Z 28011KT 04/03 A3023 RMK A01 T00440026  RH  088%=      5-min Rain = 0
KMC5 090740Z 28011KT 04/03 A3023 RMK A01 T00430026  RH  089%=      5-min Rain = 0
KMC5 090741Z 28011KT 04/03 A3023 RMK A01 T00430026  RH  089%=      5-min Rain = 0
KMC5 090742Z 28011KT 04/03 A3023 RMK A01 T00430026  RH  089%=      5-min Rain = 0
KMC5 090743Z 28011KT 04/03 A3023 RMK A01 T00430027  RH  089%=      5-min Rain = 0
KMC5 090744Z 27010KT 04/03 A3023 RMK A01 T00430026  RH  089%=      5-min Rain = 0
KMC5 090745Z 27010KT 04/03 A3023 RMK A01 T00430026  RH  089%=      5-min Rain = 0
KMC5 090746Z 27010KT 04/03 A3022 RMK A01 T00430027  RH  089%=      5-min Rain = 0
KMC5 090747Z 27009KT 04/03 A3022 RMK A01 T00430027  RH  089%=      5-min Rain = 0
KMC5 090748Z 27010KT 04/03 A3022 RMK A01 T00430027  RH  089%=      5-min Rain = 0
KMC5 090749Z 27010KT 04/03 A3022 RMK A01 T00440028  RH  089%=      5-min Rain = 0
KMC5 090750Z 27010KT 04/03 A3022 RMK A01 T00440028  RH  089%=      5-min Rain = 0
KMC5 090751Z 28011KT 04/03 A3022 RMK A01 T00440028  RH  089%=      5-min Rain = 0
KMC5 090752Z 28011KT 05/03 A3022 RMK A01 T00460029  RH  089%=      5-min Rain = 0
KMC5 090753Z 28011KT 05/03 A3022 RMK A01 T00470030  RH  089%=      5-min Rain = 0
KMC5 090754Z 28011KT 05/03 A3022 RMK A01 T00490031  RH  088%=      5-min Rain = 0
KMC5 090755Z 28011KT 05/03 A3022 RMK A01 T00500031  RH  087%=      5-min Rain = 0
KMC5 090756Z 28011KT 05/03 A3022 RMK A01 T00500030  RH  087%=      5-min Rain = 0
KMC5 090757Z 28011KT 05/03 A3022 RMK A01 T00510030  RH  086%=      5-min Rain = 0
KMC5 090758Z 28011KT 05/03 A3022 RMK A01 T00500029  RH  086%=      5-min Rain = 0
KMC5 090759Z 28010KT 05/03 A3022 RMK A01 T00500029  RH  086%=      5-min Rain = 0
KMC5 090800Z 28010KT 05/03 A3022 RMK A01 T00500029  RH  086%=      5-min Rain = 0
KMC5 090801Z 28010KT 05/03 A3022 RMK A01 T00510030  RH  086%=      5-min Rain = 0
KMC5 090802Z 28009KT 05/03 A3022 RMK A01 T00510029  RH  086%=      5-min Rain = 0
KMC5 090803Z 28009KT 05/03 A3022 RMK A01 T00510029  RH  085%=      5-min Rain = 0
KMC5 090804Z 27008KT 05/02 A3022 RMK A01 T00480023  RH  084%=      5-min Rain = 0
KMC5 090805Z 27008KT 04/02 A3022 RMK A01 T00420019  RH  085%=      5-min Rain = 0
KMC5 090806Z 27008KT 04/02 A3022 RMK A01 T00390020  RH  087%=      5-min Rain = 0
KMC5 090807Z 28008KT 04/02 A3022 RMK A01 T00390022  RH  089%=      5-min Rain = 0
KMC5 090808Z 27008KT 04/02 A3022 RMK A01 T00390023  RH  089%=      5-min Rain = 0
KMC5 090809Z 28008KT 04/02 A3022 RMK A01 T00400024  RH  089%=      5-min Rain = 0
KMC5 090810Z 28007KT 04/03 A3022 RMK A01 T00410025  RH  089%=      5-min Rain = 0
KMC5 090811Z 28007KT 04/03 A3021 RMK A01 T00430026  RH  089%=      5-min Rain = 0
KMC5 090812Z 28007KT 04/03 A3021 RMK A01 T00440026  RH  088%=      5-min Rain = 0
KMC5 090813Z 28005KT 04/02 A3021 RMK A01 T00440024  RH  087%=      5-min Rain = 0
KMC5 090814Z 27005KT 04/02 A3021 RMK A01 T00430023  RH  087%=      5-min Rain = 0
KMC5 090815Z 27006KT 04/03 A3021 RMK A01 T00430026  RH  088%=      5-min Rain = 0
KMC5 090816Z 27007KT 04/03 A3021 RMK A01 T00440025  RH  087%=      5-min Rain = 0
KMC5 090817Z 27007KT 05/03 A3021 RMK A01 T00470028  RH  087%=      5-min Rain = 0
KMC5 090818Z 27007KT 05/03 A3021 RMK A01 T00500029  RH  086%=      5-min Rain = 0
KMC5 090819Z 27007KT 05/03 A3021 RMK A01 T00520028  RH  085%=      5-min Rain = 0
KMC5 090820Z 25007KT 05/03 A3021 RMK A01 T00510025  RH  083%=      5-min Rain = 0
KMC5 090821Z 25008KT 05/02 A3021 RMK A01 T00480023  RH  084%=      5-min Rain = 0
KMC5 090822Z 25009KT 05/02 A3021 RMK A01 T00450022  RH  085%=      5-min Rain = 0
KMC5 090823Z 25009KT 04/02 A3021 RMK A01 T00410020  RH  086%=      5-min Rain = 0
KMC5 090824Z 26009KT 04/02 A3021 RMK A01 T00390020  RH  087%=      5-min Rain = 0
KMC5 090825Z 26010KT 04/02 A3021 RMK A01 T00370018  RH  087%=      5-min Rain = 0
KMC5 090826Z 26010KT 04/02 A3021 RMK A01 T00350017  RH  088%=      5-min Rain = 0
KMC5 090827Z 26009KT 03/02 A3021 RMK A01 T00320015  RH  088%=      5-min Rain = 0
KMC5 090828Z 26009KT 03/01 A3021 RMK A01 T00300014  RH  089%=      5-min Rain = 0
KMC5 090829Z 26010KT 03/01 A3021 RMK A01 T00280014  RH  090%=      5-min Rain = 0
KMC5 090830Z 26009KT 03/01 A3021 RMK A01 T00270014  RH  091%=      5-min Rain = 0
KMC5 090831Z 26009KT 03/01 A3021 RMK A01 T00260013  RH  091%=      5-min Rain = 0
KMC5 090832Z 27009KT 03/01 A3021 RMK A01 T00250013  RH  092%=      5-min Rain = 0
KMC5 090833Z 27008KT 03/01 A3021 RMK A01 T00250014  RH  092%=      5-min Rain = 0
KMC5 090834Z 27008KT 03/01 A3021 RMK A01 T00260014  RH  092%=      5-min Rain = 0
KMC5 090835Z 27009KT 03/01 A3022 RMK A01 T00260014  RH  092%=      5-min Rain = 0
KMC5 090836Z 27011KT 03/02 A3021 RMK A01 T00260015  RH  092%=      5-min Rain = 0
KMC5 090837Z 27011KT 03/02 A3021 RMK A01 T00280019  RH  093%=      5-min Rain = 0
KMC5 090838Z 27011KT 03/02 A3021 RMK A01 T00320022  RH  093%=      5-min Rain = 0
KMC5 090839Z 27011KT 04/03 A3021 RMK A01 T00350025  RH  093%=      5-min Rain = 0
KMC5 090840Z 27011KT 04/03 A3021 RMK A01 T00390027  RH  092%=      5-min Rain = 0
KMC5 090841Z 27011KT 04/03 A3021 RMK A01 T00410027  RH  090%=      5-min Rain = 0
KMC5 090842Z 28011KT 04/03 A3021 RMK A01 T00430027  RH  089%=      5-min Rain = 0
KMC5 090843Z 27011KT 05/03 A3021 RMK A01 T00450027  RH  088%=      5-min Rain = 0
KMC5 090844Z 27011KT 05/03 A3021 RMK A01 T00460027  RH  087%=      5-min Rain = 0
KMC5 090845Z 28011KT 05/03 A3021 RMK A01 T00470026  RH  086%=      5-min Rain = 0
KMC5 090846Z 28012KT 05/03 A3021 RMK A01 T00480026  RH  086%=      5-min Rain = 0
KMC5 090847Z 28012KT 05/03 A3021 RMK A01 T00490027  RH  086%=      5-min Rain = 0
KMC5 090848Z 28011KT 05/03 A3021 RMK A01 T00500027  RH  085%=      5-min Rain = 0
KMC5 090849Z 28012KT 05/03 A3021 RMK A01 T00500027  RH  085%=      5-min Rain = 0
KMC5 090850Z 28011KT 05/03 A3021 RMK A01 T00520027  RH  084%=      5-min Rain = 0
KMC5 090851Z 28010KT 05/03 A3021 RMK A01 T00520026  RH  083%=      5-min Rain = 0
KMC5 090852Z 28009KT 05/03 A3021 RMK A01 T00500025  RH  083%=      5-min Rain = 0
KMC5 090853Z 28009KT 05/02 A3021 RMK A01 T00490024  RH  084%=      5-min Rain = 0
KMC5 090854Z 28009KT 05/03 A3021 RMK A01 T00480025  RH  085%=      5-min Rain = 0
KMC5 090855Z 28009KT 05/02 A3021 RMK A01 T00480024  RH  084%=      5-min Rain = 0
KMC5 090856Z 28010KT 05/02 A3021 RMK A01 T00460023  RH  085%=      5-min Rain = 0
KMC5 090857Z 28010KT 05/03 A3021 RMK A01 T00470025  RH  085%=      5-min Rain = 0
KMC5 090858Z 28010KT 05/02 A3021 RMK A01 T00480024  RH  085%=      5-min Rain = 0
KMC5 090859Z 28010KT 05/02 A3021 RMK A01 T00480024  RH  085%=      5-min Rain = 0
KMC5 090900Z 28010KT 05/03 A302 RMK A01 T00480025  RH  085%=      5-min Rain = 0
KMC5 090901Z 28010KT 05/03 A302 RMK A01 T00490025  RH  084%=      5-min Rain = 0
KMC5 090902Z 28009KT 05/03 A302 RMK A01 T00490025  RH  085%=      5-min Rain = 0
KMC5 090903Z 29009KT 05/03 A302 RMK A01 T00490025  RH  085%=      5-min Rain = 0
KMC5 090904Z 28009KT 05/03 A302 RMK A01 T00490025  RH  085%=      5-min Rain = 0
KMC5 090905Z 28009KT 05/03 A302 RMK A01 T00490025  RH  085%=      5-min Rain = 0
KMC5 090906Z 28009KT 05/03 A302 RMK A01 T00490025  RH  085%=      5-min Rain = 0
KMC5 090907Z 28009KT 05/03 A302 RMK A01 T00490025  RH  085%=      5-min Rain = 0
KMC5 090908Z 28010KT 05/03 A302 RMK A01 T00490025  RH  084%=      5-min Rain = 0
KMC5 090909Z 28010KT 05/03 A302 RMK A01 T00500026  RH  084%=      5-min Rain = 0
KMC5 090910Z 28010KT 05/03 A302 RMK A01 T00500025  RH  084%=      5-min Rain = 0
KMC5 090911Z 28011KT 05/03 A302 RMK A01 T00500025  RH  084%=      5-min Rain = 0
KMC5 090912Z 28011KT 05/03 A302 RMK A01 T00500025  RH  084%=      5-min Rain = 0
KMC5 090913Z 28011KT 05/03 A302 RMK A01 T00500025  RH  084%=      5-min Rain = 0
KMC5 090914Z 28011KT 05/03 A302 RMK A01 T00500025  RH  084%=      5-min Rain = 0
KMC5 090915Z 28011KT 05/03 A302 RMK A01 T00500025  RH  084%=      5-min Rain = 0
KMC5 090916Z 28011KT 05/03 A302 RMK A01 T00490025  RH  084%=      5-min Rain = 0
KMC5 090917Z 28011KT 05/02 A302 RMK A01 T00490024  RH  084%=      5-min Rain = 0
KMC5 090918Z 29010KT 05/02 A302 RMK A01 T00490024  RH  084%=      5-min Rain = 0
KMC5 090919Z 29010KT 05/02 A302 RMK A01 T00490024  RH  084%=      5-min Rain = 0
KMC5 090920Z 29011KT 05/02 A302 RMK A01 T00490024  RH  084%=      5-min Rain = 0
KMC5 090921Z 28010KT 05/03 A302 RMK A01 T00500025  RH  084%=      5-min Rain = 0
KMC5 090922Z 28009KT 05/02 A302 RMK A01 T00500024  RH  083%=      5-min Rain = 0
KMC5 090923Z 28009KT 05/02 A302 RMK A01 T00480022  RH  083%=      5-min Rain = 0
KMC5 090924Z 28009KT 05/02 A302 RMK A01 T00460021  RH  084%=      5-min Rain = 0
KMC5 090925Z 28008KT 04/02 A302 RMK A01 T00440021  RH  085%=      5-min Rain = 0
KMC5 090926Z 28008KT 04/02 A302 RMK A01 T00420020  RH  086%=      5-min Rain = 0
KMC5 090927Z 28008KT 04/02 A302 RMK A01 T00410020  RH  086%=      5-min Rain = 0
KMC5 090928Z 28008KT 04/02 A302 RMK A01 T00410020  RH  086%=      5-min Rain = 0
KMC5 090929Z 28009KT 04/02 A302 RMK A01 T00410021  RH  086%=      5-min Rain = 0
KMC5 090930Z 28009KT 04/02 A302 RMK A01 T00410020  RH  086%=      5-min Rain = 0
KMC5 090931Z 28009KT 04/02 A302 RMK A01 T00410021  RH  087%=      5-min Rain = 0
KMC5 090932Z 28010KT 04/02 A302 RMK A01 T00420022  RH  087%=      5-min Rain = 0
KMC5 090933Z 28010KT 04/02 A302 RMK A01 T00430022  RH  086%=      5-min Rain = 0
KMC5 090934Z 28010KT 04/02 A302 RMK A01 T00440022  RH  085%=      5-min Rain = 0
KMC5 090935Z 28010KT 05/02 A302 RMK A01 T00450022  RH  085%=      5-min Rain = 0
KMC5 090936Z 28010KT 05/02 A302 RMK A01 T00460023  RH  085%=      5-min Rain = 0
KMC5 090937Z 28010KT 05/02 A302 RMK A01 T00460023  RH  085%=      5-min Rain = 0
KMC5 090938Z 28010KT 05/02 A302 RMK A01 T00470023  RH  085%=      5-min Rain = 0
KMC5 090939Z 28010KT 05/02 A302 RMK A01 T00470023  RH  084%=      5-min Rain = 0
KMC5 090940Z 28009KT 05/02 A302 RMK A01 T00470022  RH  084%=      5-min Rain = 0
KMC5 090941Z 28009KT 05/02 A302 RMK A01 T00470022  RH  084%=      5-min Rain = 0
KMC5 090942Z 28009KT 05/02 A302 RMK A01 T00450021  RH  084%=      5-min Rain = 0
KMC5 090943Z 28010KT 04/02 A302 RMK A01 T00440021  RH  085%=      5-min Rain = 0
KMC5 090944Z 28010KT 04/02 A302 RMK A01 T00440022  RH  085%=      5-min Rain = 0
KMC5 090945Z 28010KT 05/02 A302 RMK A01 T00450022  RH  085%=      5-min Rain = 0
KMC5 090946Z 28010KT 05/02 A302 RMK A01 T00460023  RH  085%=      5-min Rain = 0
KMC5 090947Z 28009KT 05/02 A302 RMK A01 T00470022  RH  084%=      5-min Rain = 0
KMC5 090948Z 28008KT 05/02 A302 RMK A01 T00470022  RH  084%=      5-min Rain = 0
KMC5 090949Z 27008KT 05/02 A302 RMK A01 T00470022  RH  084%=      5-min Rain = 0
KMC5 090950Z 27009KT 05/02 A302 RMK A01 T00460022  RH  085%=      5-min Rain = 0
KMC5 090951Z 27008KT 05/02 A302 RMK A01 T00460022  RH  084%=      5-min Rain = 0
KMC5 090952Z 27008KT 05/02 A302 RMK A01 T00450021  RH  085%=      5-min Rain = 0
KMC5 090953Z 27008KT 04/02 A302 RMK A01 T00440021  RH  085%=      5-min Rain = 0
KMC5 090954Z 27008KT 04/02 A302 RMK A01 T00440021  RH  085%=      5-min Rain = 0
KMC5 090955Z 27008KT 04/02 A302 RMK A01 T00440021  RH  085%=      5-min Rain = 0
KMC5 090956Z 28008KT 05/02 A302 RMK A01 T00450022  RH  085%=      5-min Rain = 0
KMC5 090957Z 27008KT 05/02 A302 RMK A01 T00460023  RH  085%=      5-min Rain = 0
KMC5 090958Z 28008KT 05/02 A302 RMK A01 T00470023  RH  084%=      5-min Rain = 0
KMC5 090959Z 27009KT 05/02 A302 RMK A01 T00480023  RH  084%=      5-min Rain = 0
KMC5 091000Z 27010KT 05/02 A302 RMK A01 T00490023  RH  084%=      5-min Rain = 0
KMC5 091001Z 27011KT 05/02 A302 RMK A01 T00500024  RH  083%=      5-min Rain = 0
KMC5 091002Z 27011KT 05/02 A302 RMK A01 T00500024  RH  083%=      5-min Rain = 0
KMC5 091003Z 27010KT 05/02 A302 RMK A01 T00500023  RH  083%=      5-min Rain = 0
KMC5 091004Z 27009KT 05/02 A302 RMK A01 T00480021  RH  083%=      5-min Rain = 0
KMC5 091005Z 27008KT 04/02 A302 RMK A01 T00440017  RH  083%=      5-min Rain = 0
KMC5 091006Z 28008KT 04/01 A302 RMK A01 T00370011  RH  083%=      5-min Rain = 0
KMC5 091007Z 27007KT 03/01 A302 RMK A01 T00330011  RH  085%=      5-min Rain = 0
KMC5 091008Z 27007KT 03/01 A302 RMK A01 T00300010  RH  087%=      5-min Rain = 0
KMC5 091009Z 27007KT 03/01 A302 RMK A01 T00280010  RH  088%=      5-min Rain = 0
KMC5 091010Z 27006KT 03/01 A302 RMK A01 T00270011  RH  089%=      5-min Rain = 0
KMC5 091011Z 27007KT 03/01 A302 RMK A01 T00270012  RH  090%=      5-min Rain = 0
KMC5 091012Z 27006KT 03/01 A302 RMK A01 T00270013  RH  090%=      5-min Rain = 0
KMC5 091013Z 27007KT 03/01 A302 RMK A01 T00270013  RH  090%=      5-min Rain = 0
KMC5 091014Z 27007KT 03/01 A302 RMK A01 T00280014  RH  090%=      5-min Rain = 0
KMC5 091015Z 27007KT 03/02 A3019 RMK A01 T00290015  RH  090%=      5-min Rain = 0
KMC5 091016Z 28007KT 03/02 A3019 RMK A01 T00300015  RH  089%=      5-min Rain = 0
KMC5 091017Z 28008KT 03/01 A3019 RMK A01 T00300014  RH  089%=      5-min Rain = 0
KMC5 091018Z 28009KT 03/02 A3019 RMK A01 T00320018  RH  090%=      5-min Rain = 0
KMC5 091019Z 28009KT 04/02 A3019 RMK A01 T00360021  RH  090%=      5-min Rain = 0
KMC5 091020Z 28010KT 04/02 A3019 RMK A01 T00400022  RH  088%=      5-min Rain = 0
KMC5 091021Z 28010KT 04/02 A3019 RMK A01 T00430023  RH  087%=      5-min Rain = 0
KMC5 091022Z 29011KT 05/02 A3019 RMK A01 T00450023  RH  086%=      5-min Rain = 0
KMC5 091023Z 29011KT 05/02 A3019 RMK A01 T00470024  RH  085%=      5-min Rain = 0
KMC5 091024Z 29011KT 05/03 A3019 RMK A01 T00510025  RH  083%=      5-min Rain = 0
KMC5 091025Z 28011KT 06/03 A3019 RMK A01 T00550026  RH  082%=      5-min Rain = 0
KMC5 091026Z 29011KT 06/03 A3019 RMK A01 T00570026  RH  080%=      5-min Rain = 0
KMC5 091027Z 29011KT 06/03 A3019 RMK A01 T00590027  RH  080%=      5-min Rain = 0
KMC5 091028Z 29012KT 06/03 A3019 RMK A01 T00600027  RH  079%=      5-min Rain = 0
KMC5 091029Z 29012KT 06/03 A3019 RMK A01 T00610027  RH  078%=      5-min Rain = 0
KMC5 091030Z 29012KT 06/03 A3019 RMK A01 T00620026  RH  078%=      5-min Rain = 0
KMC5 091031Z 29011KT 06/03 A3019 RMK A01 T00620026  RH  078%=      5-min Rain = 0
KMC5 091032Z 29012KT 06/03 A3019 RMK A01 T00610026  RH  078%=      5-min Rain = 0
KMC5 091033Z 29011KT 06/03 A3019 RMK A01 T00610025  RH  078%=      5-min Rain = 0
KMC5 091034Z 29011KT 06/03 A3019 RMK A01 T00610025  RH  078%=      5-min Rain = 0
KMC5 091035Z 29011KT 06/03 A3019 RMK A01 T00600025  RH  078%=      5-min Rain = 0
KMC5 091036Z 29011KT 06/03 A3019 RMK A01 T00590025  RH  079%=      5-min Rain = 0
KMC5 091037Z 29010KT 06/03 A3019 RMK A01 T00590025  RH  079%=      5-min Rain = 0
KMC5 091038Z 29011KT 06/02 A3019 RMK A01 T00580024  RH  079%=      5-min Rain = 0
KMC5 091039Z 29012KT 06/02 A3019 RMK A01 T00580024  RH  079%=      5-min Rain = 0
KMC5 091040Z 29012KT 06/02 A3019 RMK A01 T00580024  RH  079%=      5-min Rain = 0
KMC5 091041Z 29012KT 06/02 A3019 RMK A01 T00580024  RH  079%=      5-min Rain = 0
KMC5 091042Z 29012KT 06/03 A3019 RMK A01 T00590025  RH  079%=      5-min Rain = 0
KMC5 091043Z 29012KT 06/03 A3019 RMK A01 T00600025  RH  078%=      5-min Rain = 0
KMC5 091044Z 29013KT 06/03 A3019 RMK A01 T00600025  RH  078%=      5-min Rain = 0
KMC5 091045Z 29013KT 06/03 A3019 RMK A01 T00620026  RH  077%=      5-min Rain = 0
KMC5 091046Z 29014KT 06/03 A3019 RMK A01 T00640025  RH  076%=      5-min Rain = 0
KMC5 091047Z 29013KT 06/03 A3019 RMK A01 T00640025  RH  076%=      5-min Rain = 0
KMC5 091048Z 29013KT 06/02 A3019 RMK A01 T00630024  RH  076%=      5-min Rain = 0
KMC5 091049Z 29013KT 06/02 A3019 RMK A01 T00610024  RH  077%=      5-min Rain = 0
KMC5 091050Z 29013KT 06/02 A3019 RMK A01 T00600024  RH  077%=      5-min Rain = 0
KMC5 091051Z 29013KT 06/02 A3019 RMK A01 T00600024  RH  078%=      5-min Rain = 0
KMC5 091052Z 29013KT 06/02 A3019 RMK A01 T00600024  RH  078%=      5-min Rain = 0
KMC5 091053Z 29013KT 06/02 A3019 RMK A01 T00600023  RH  078%=      5-min Rain = 0
KMC5 091054Z 29013KT 06/02 A3019 RMK A01 T00610024  RH  077%=      5-min Rain = 0
KMC5 091055Z 29013KT 06/02 A3019 RMK A01 T00620024  RH  077%=      5-min Rain = 0
KMC5 091056Z 29013KT 06/02 A3019 RMK A01 T00620024  RH  077%=      5-min Rain = 0
KMC5 091057Z 29012KT 06/02 A3019 RMK A01 T00630024  RH  076%=      5-min Rain = 0
KMC5 091058Z 29013KT 06/02 A3019 RMK A01 T00620024  RH  076%=      5-min Rain = 0
KMC5 091059Z 29013KT 06/02 A3019 RMK A01 T00620023  RH  076%=      5-min Rain = 0
KMC5 091100Z 29012KT 06/02 A3019 RMK A01 T00610023  RH  077%=      5-min Rain = 0
KMC5 091101Z 29012KT 06/02 A3019 RMK A01 T00600023  RH  077%=      5-min Rain = 0
KMC5 091102Z 29012KT 06/02 A3019 RMK A01 T00580022  RH  078%=      5-min Rain = 0
KMC5 091103Z 29012KT 06/02 A3019 RMK A01 T00570022  RH  078%=      5-min Rain = 0
KMC5 091104Z 29013KT 06/02 A3019 RMK A01 T00570023  RH  079%=      5-min Rain = 0
KMC5 091105Z 29013KT 06/02 A3019 RMK A01 T00560023  RH  079%=      5-min Rain = 0
KMC5 091106Z 29013KT 06/02 A3019 RMK A01 T00560024  RH  080%=      5-min Rain = 0
KMC5 091107Z 29014KT 06/02 A3019 RMK A01 T00560024  RH  080%=      5-min Rain = 0
KMC5 091108Z 29013KT 06/03 A3019 RMK A01 T00580025  RH  079%=      5-min Rain = 0
KMC5 091109Z 29014KT 06/03 A3019 RMK A01 T00590025  RH  079%=      5-min Rain = 0
KMC5 091110Z 29012KT 06/02 A3019 RMK A01 T00600024  RH  078%=      5-min Rain = 0
KMC5 091111Z 29012KT 06/02 A3019 RMK A01 T00600024  RH  078%=      5-min Rain = 0
KMC5 091112Z 29013KT 06/02 A3019 RMK A01 T00600024  RH  078%=      5-min Rain = 0
KMC5 091113Z 29013KT 06/02 A3019 RMK A01 T00600024  RH  078%=      5-min Rain = 0
KMC5 091114Z 29012KT 06/02 A3019 RMK A01 T00600024  RH  078%=      5-min Rain = 0
KMC5 091115Z 29012KT 06/02 A3019 RMK A01 T00590024  RH  078%=      5-min Rain = 0
KMC5 091116Z 29011KT 06/02 A3019 RMK A01 T00570023  RH  079%=      5-min Rain = 0
KMC5 091117Z 29011KT 06/02 A3019 RMK A01 T00550022  RH  079%=      5-min Rain = 0
KMC5 091118Z 28010KT 05/02 A3019 RMK A01 T00540022  RH  080%=      5-min Rain = 0
KMC5 091119Z 28010KT 05/02 A3019 RMK A01 T00530021  RH  080%=      5-min Rain = 0
KMC5 091120Z 28010KT 05/02 A3019 RMK A01 T00510021  RH  081%=      5-min Rain = 0
KMC5 091121Z 28009KT 05/02 A3019 RMK A01 T00490021  RH  082%=      5-min Rain = 0
KMC5 091122Z 28010KT 05/02 A3019 RMK A01 T00480020  RH  082%=      5-min Rain = 0
KMC5 091123Z 29010KT 05/02 A3019 RMK A01 T00470020  RH  083%=      5-min Rain = 0
KMC5 091124Z 29010KT 05/02 A3019 RMK A01 T00460020  RH  083%=      5-min Rain = 0
KMC5 091125Z 28011KT 05/02 A3019 RMK A01 T00460020  RH  084%=      5-min Rain = 0
KMC5 091126Z 28011KT 05/02 A3019 RMK A01 T00470021  RH  083%=      5-min Rain = 0
KMC5 091127Z 28011KT 05/02 A3019 RMK A01 T00490022  RH  083%=      5-min Rain = 0
KMC5 091128Z 28011KT 05/02 A3019 RMK A01 T00500022  RH  082%=      5-min Rain = 0
KMC5 091129Z 28011KT 05/02 A3019 RMK A01 T00510022  RH  081%=      5-min Rain = 0
KMC5 091130Z 28011KT 05/02 A3019 RMK A01 T00520022  RH  081%=      5-min Rain = 0
KMC5 091131Z 28010KT 05/02 A3019 RMK A01 T00520021  RH  080%=      5-min Rain = 0
KMC5 091132Z 28009KT 05/02 A3019 RMK A01 T00510021  RH  081%=      5-min Rain = 0
KMC5 091133Z 28008KT 05/02 A3019 RMK A01 T00480019  RH  081%=      5-min Rain = 0
KMC5 091134Z 28009KT 05/02 A3019 RMK A01 T00450018  RH  082%=      5-min Rain = 0
KMC5 091135Z 28008KT 04/02 A3019 RMK A01 T00430018  RH  084%=      5-min Rain = 0
KMC5 091136Z 27008KT 04/02 A3019 RMK A01 T00430018  RH  084%=      5-min Rain = 0
KMC5 091137Z 27008KT 04/02 A3019 RMK A01 T00420019  RH  085%=      5-min Rain = 0
KMC5 091138Z 27009KT 04/02 A3019 RMK A01 T00420019  RH  085%=      5-min Rain = 0
KMC5 091139Z 27009KT 04/02 A3019 RMK A01 T00420019  RH  085%=      5-min Rain = 0
KMC5 091140Z 27008KT 04/02 A3019 RMK A01 T00420019  RH  085%=      5-min Rain = 0
KMC5 091141Z 27008KT 04/02 A3019 RMK A01 T00420019  RH  085%=      5-min Rain = 0
KMC5 091142Z 27008KT 04/02 A3019 RMK A01 T00420019  RH  085%=      5-min Rain = 0
KMC5 091143Z 27007KT 04/02 A3019 RMK A01 T00420019  RH  085%=      5-min Rain = 0
KMC5 091144Z 26007KT 04/02 A3019 RMK A01 T00420019  RH  085%=      5-min Rain = 0
KMC5 091145Z 26008KT 04/02 A302 RMK A01 T00420019  RH  085%=      5-min Rain = 0
KMC5 091146Z 26008KT 04/02 A302 RMK A01 T00420019  RH  085%=      5-min Rain = 0
KMC5 091147Z 26008KT 04/02 A302 RMK A01 T00430020  RH  085%=      5-min Rain = 0
KMC5 091148Z 26008KT 04/02 A302 RMK A01 T00430019  RH  084%=      5-min Rain = 0
KMC5 091149Z 26008KT 04/02 A302 RMK A01 T00440020  RH  084%=      5-min Rain = 0
KMC5 091150Z 27009KT 05/02 A302 RMK A01 T00450019  RH  084%=      5-min Rain = 0
KMC5 091151Z 26008KT 04/02 A302 RMK A01 T00440020  RH  084%=      5-min Rain = 0
KMC5 091152Z 26008KT 04/02 A302 RMK A01 T00440020  RH  084%=      5-min Rain = 0
KMC5 091153Z 26008KT 04/02 A302 RMK A01 T00440019  RH  084%=      5-min Rain = 0
KMC5 091154Z 26009KT 04/02 A302 RMK A01 T00440019  RH  084%=      5-min Rain = 0
KMC5 091155Z 26009KT 04/02 A302 RMK A01 T00440019  RH  084%=      5-min Rain = 0
KMC5 091156Z 27010KT 04/02 A302 RMK A01 T00440019  RH  084%=      5-min Rain = 0
KMC5 091157Z 26009KT 04/02 A302 RMK A01 T00440018  RH  084%=      5-min Rain = 0
KMC5 091158Z 27009KT 04/02 A302 RMK A01 T00440019  RH  084%=      5-min Rain = 0
KMC5 091159Z 26008KT 04/02 A302 RMK A01 T00440018  RH  084%=      5-min Rain = 0
KMC5 091200Z 26008KT 04/02 A302 RMK A01 T00440018  RH  083%=      5-min Rain = 0
KMC5 091201Z 26008KT 04/02 A302 RMK A01 T00440018  RH  084%=      5-min Rain = 0
KMC5 091202Z 26009KT 04/02 A302 RMK A01 T00430018  RH  084%=      5-min Rain = 0
KMC5 091203Z 27009KT 04/02 A302 RMK A01 T00430018  RH  084%=      5-min Rain = 0
KMC5 091204Z 27009KT 04/02 A302 RMK A01 T00420018  RH  084%=      5-min Rain = 0
KMC5 091205Z 27009KT 04/02 A302 RMK A01 T00430019  RH  084%=      5-min Rain = 0
KMC5 091206Z 27010KT 04/02 A302 RMK A01 T00440018  RH  083%=      5-min Rain = 0
KMC5 091207Z 27010KT 05/02 A302 RMK A01 T00450018  RH  083%=      5-min Rain = 0
KMC5 091208Z 27010KT 04/02 A302 RMK A01 T00440018  RH  083%=      5-min Rain = 0
KMC5 091209Z 27010KT 04/02 A302 RMK A01 T00420016  RH  083%=      5-min Rain = 0
KMC5 091210Z 27009KT 04/02 A302 RMK A01 T00420017  RH  084%=      5-min Rain = 0
KMC5 091211Z 27009KT 04/02 A302 RMK A01 T00410016  RH  084%=      5-min Rain = 0
KMC5 091212Z 27009KT 04/01 A302 RMK A01 T00380013  RH  084%=      5-min Rain = 0
KMC5 091213Z 27009KT 04/01 A302 RMK A01 T00360012  RH  085%=      5-min Rain = 0
KMC5 091214Z 27009KT 03/01 A302 RMK A01 T00340013  RH  086%=      5-min Rain = 0
KMC5 091215Z 27009KT 03/01 A302 RMK A01 T00340014  RH  087%=      5-min Rain = 0
KMC5 091216Z 27009KT 04/02 A302 RMK A01 T00350015  RH  087%=      5-min Rain = 0
KMC5 091217Z 27008KT 04/02 A302 RMK A01 T00350015  RH  087%=      5-min Rain = 0
KMC5 091218Z 27009KT 04/02 A302 RMK A01 T00360015  RH  086%=      5-min Rain = 0
KMC5 091219Z 27009KT 04/02 A302 RMK A01 T00360016  RH  086%=      5-min Rain = 0
KMC5 091220Z 28009KT 04/02 A302 RMK A01 T00380017  RH  086%=      5-min Rain = 0
KMC5 091221Z 28010KT 04/02 A302 RMK A01 T00420018  RH  085%=      5-min Rain = 0
KMC5 091222Z 28009KT 04/02 A302 RMK A01 T00440017  RH  083%=      5-min Rain = 0
KMC5 091223Z 28009KT 04/02 A302 RMK A01 T00440017  RH  083%=      5-min Rain = 0
KMC5 091224Z 28009KT 04/02 A302 RMK A01 T00440018  RH  083%=      5-min Rain = 0
KMC5 091225Z 27009KT 05/02 A302 RMK A01 T00450017  RH  082%=      5-min Rain = 0
KMC5 091226Z 27009KT 05/02 A302 RMK A01 T00450017  RH  082%=      5-min Rain = 0
KMC5 091227Z 28010KT 05/02 A302 RMK A01 T00450017  RH  082%=      5-min Rain = 0
KMC5 091228Z 28011KT 05/02 A302 RMK A01 T00470018  RH  082%=      5-min Rain = 0
KMC5 091229Z 27010KT 05/02 A302 RMK A01 T00480017  RH  081%=      5-min Rain = 0
KMC5 091230Z 27009KT 05/02 A302 RMK A01 T00460016  RH  081%=      5-min Rain = 0
KMC5 091231Z 27010KT 04/02 A302 RMK A01 T00440016  RH  082%=      5-min Rain = 0
KMC5 091232Z 27010KT 04/02 A302 RMK A01 T00420015  RH  083%=      5-min Rain = 0
KMC5 091233Z 27010KT 04/02 A302 RMK A01 T00410015  RH  083%=      5-min Rain = 0
KMC5 091234Z 27009KT 04/02 A302 RMK A01 T00400015  RH  084%=      5-min Rain = 0
KMC5 091235Z 27009KT 04/02 A302 RMK A01 T00380015  RH  084%=      5-min Rain = 0
KMC5 091236Z 27009KT 04/02 A302 RMK A01 T00380015  RH  085%=      5-min Rain = 0
KMC5 091237Z 27009KT 04/01 A302 RMK A01 T00370014  RH  085%=      5-min Rain = 0
KMC5 091238Z 27009KT 04/01 A302 RMK A01 T00360014  RH  086%=      5-min Rain = 0
KMC5 091239Z 27009KT 04/01 A302 RMK A01 T00360014  RH  086%=      5-min Rain = 0
KMC5 091240Z 27009KT 04/01 A302 RMK A01 T00350014  RH  086%=      5-min Rain = 0
KMC5 091241Z 28010KT 04/02 A302 RMK A01 T00350015  RH  087%=      5-min Rain = 0
KMC5 091242Z 28010KT 04/02 A302 RMK A01 T00380018  RH  087%=      5-min Rain = 0
KMC5 091243Z 27009KT 04/02 A302 RMK A01 T00420018  RH  085%=      5-min Rain = 0
KMC5 091244Z 27009KT 04/02 A302 RMK A01 T00440018  RH  083%=      5-min Rain = 0
KMC5 091245Z 27009KT 05/02 A302 RMK A01 T00450018  RH  082%=      5-min Rain = 0
KMC5 091246Z 27010KT 05/02 A302 RMK A01 T00450017  RH  082%=      5-min Rain = 0
KMC5 091247Z 27009KT 04/02 A302 RMK A01 T00440016  RH  082%=      5-min Rain = 0
KMC5 091248Z 27010KT 04/02 A302 RMK A01 T00430016  RH  083%=      5-min Rain = 0
KMC5 091249Z 27009KT 04/02 A302 RMK A01 T00430016  RH  083%=      5-min Rain = 0
KMC5 091250Z 27009KT 04/01 A302 RMK A01 T00410014  RH  083%=      5-min Rain = 0
KMC5 091251Z 27009KT 04/02 A302 RMK A01 T00400015  RH  084%=      5-min Rain = 0
KMC5 091252Z 27009KT 04/02 A302 RMK A01 T00390015  RH  084%=      5-min Rain = 0
KMC5 091253Z 27009KT 04/02 A302 RMK A01 T00380015  RH  085%=      5-min Rain = 0
KMC5 091254Z 27010KT 04/02 A302 RMK A01 T00380016  RH  085%=      5-min Rain = 0
KMC5 091255Z 27010KT 04/02 A302 RMK A01 T00380016  RH  085%=      5-min Rain = 0
KMC5 091256Z 27010KT 04/02 A302 RMK A01 T00390015  RH  085%=      5-min Rain = 0
KMC5 091257Z 27010KT 04/02 A302 RMK A01 T00390016  RH  085%=      5-min Rain = 0
KMC5 091258Z 27011KT 04/02 A302 RMK A01 T00400017  RH  085%=      5-min Rain = 0
KMC5 091259Z 27010KT 04/02 A302 RMK A01 T00430018  RH  084%=      5-min Rain = 0
KMC5 091300Z 27010KT 04/02 A302 RMK A01 T00440017  RH  082%=      5-min Rain = 0
KMC5 091301Z 27009KT 04/02 A302 RMK A01 T00420015  RH  083%=      5-min Rain = 0
KMC5 091302Z 27009KT 04/01 A302 RMK A01 T00390014  RH  084%=      5-min Rain = 0
KMC5 091303Z 27009KT 04/01 A302 RMK A01 T00370014  RH  085%=      5-min Rain = 0
KMC5 091304Z 27009KT 04/02 A302 RMK A01 T00360015  RH  086%=      5-min Rain = 0
KMC5 091305Z 27010KT 04/02 A302 RMK A01 T00370016  RH  086%=      5-min Rain = 0
KMC5 091306Z 27010KT 04/02 A302 RMK A01 T00370016  RH  086%=      5-min Rain = 0
KMC5 091307Z 27010KT 04/02 A302 RMK A01 T00370015  RH  086%=      5-min Rain = 0
KMC5 091308Z 27010KT 04/02 A302 RMK A01 T00370016  RH  086%=      5-min Rain = 0
KMC5 091309Z 27010KT 04/02 A302 RMK A01 T00370015  RH  086%=      5-min Rain = 0
KMC5 091310Z 27010KT 04/02 A302 RMK A01 T00370016  RH  086%=      5-min Rain = 0
KMC5 091311Z 27010KT 04/02 A3021 RMK A01 T00370017  RH  086%=      5-min Rain = 0
KMC5 091312Z 27010KT 04/02 A3021 RMK A01 T00390017  RH  086%=      5-min Rain = 0
KMC5 091313Z 27010KT 04/02 A3021 RMK A01 T00410017  RH  085%=      5-min Rain = 0
KMC5 091314Z 27010KT 04/02 A3021 RMK A01 T00410017  RH  084%=      5-min Rain = 0
KMC5 091315Z 27009KT 04/02 A3021 RMK A01 T00420017  RH  084%=      5-min Rain = 0
KMC5 091316Z 27009KT 04/02 A3021 RMK A01 T00420017  RH  084%=      5-min Rain = 0
KMC5 091317Z 27009KT 04/02 A3021 RMK A01 T00420016  RH  084%=      5-min Rain = 0
KMC5 091318Z 27009KT 04/02 A3021 RMK A01 T00410016  RH  084%=      5-min Rain = 0
KMC5 091319Z 27009KT 04/02 A3021 RMK A01 T00410017  RH  084%=      5-min Rain = 0
KMC5 091320Z 27009KT 04/02 A3021 RMK A01 T00420017  RH  084%=      5-min Rain = 0
KMC5 091321Z 27010KT 04/02 A3021 RMK A01 T00420017  RH  083%=      5-min Rain = 0
KMC5 091322Z 27010KT 04/02 A3021 RMK A01 T00430017  RH  084%=      5-min Rain = 0
KMC5 091323Z 27010KT 04/02 A3021 RMK A01 T00430017  RH  083%=      5-min Rain = 0
KMC5 091324Z 27010KT 04/02 A3021 RMK A01 T00430016  RH  083%=      5-min Rain = 0
KMC5 091325Z 27010KT 04/02 A3021 RMK A01 T00410016  RH  083%=      5-min Rain = 0
KMC5 091326Z 27010KT 04/02 A3021 RMK A01 T00410016  RH  084%=      5-min Rain = 0
KMC5 091327Z 27010KT 04/02 A3021 RMK A01 T00410017  RH  084%=      5-min Rain = 0
KMC5 091328Z 27010KT 04/02 A3021 RMK A01 T00410016  RH  084%=      5-min Rain = 0
KMC5 091329Z 27010KT 04/02 A3021 RMK A01 T00390015  RH  084%=      5-min Rain = 0
KMC5 091330Z 26010KT 04/02 A3021 RMK A01 T00390016  RH  085%=      5-min Rain = 0
KMC5 091331Z 27009KT 04/02 A3021 RMK A01 T00390016  RH  085%=      5-min Rain = 0
KMC5 091332Z 27009KT 04/02 A3021 RMK A01 T00390017  RH  086%=      5-min Rain = 0
KMC5 091333Z 27010KT 04/02 A3021 RMK A01 T00390017  RH  086%=      5-min Rain = 0
KMC5 091334Z 27010KT 04/02 A3021 RMK A01 T00390017  RH  085%=      5-min Rain = 0
KMC5 091335Z 27010KT 04/02 A3021 RMK A01 T00390017  RH  085%=      5-min Rain = 0
KMC5 091336Z 27010KT 04/02 A3021 RMK A01 T00380017  RH  086%=      5-min Rain = 0
KMC5 091337Z 27010KT 04/02 A3021 RMK A01 T00380017  RH  086%=      5-min Rain = 0
KMC5 091338Z 27010KT 04/02 A3021 RMK A01 T00380017  RH  086%=      5-min Rain = 0
KMC5 091339Z 27010KT 04/02 A3021 RMK A01 T00380017  RH  086%=      5-min Rain = 0
KMC5 091340Z 26010KT 04/02 A3021 RMK A01 T00390017  RH  086%=      5-min Rain = 0
KMC5 091341Z 27010KT 04/02 A3021 RMK A01 T00390018  RH  086%=      5-min Rain = 0
KMC5 091342Z 26010KT 04/02 A3021 RMK A01 T00390018  RH  086%=      5-min Rain = 0
KMC5 091343Z 27010KT 04/02 A3021 RMK A01 T00400019  RH  086%=      5-min Rain = 0
KMC5 091344Z 27009KT 04/02 A3021 RMK A01 T00400019  RH  086%=      5-min Rain = 0
KMC5 091345Z 27010KT 04/02 A3021 RMK A01 T00410020  RH  086%=      5-min Rain = 0
KMC5 091346Z 27010KT 04/02 A3021 RMK A01 T00420020  RH  086%=      5-min Rain = 0
KMC5 091347Z 27010KT 04/02 A3021 RMK A01 T00440020  RH  085%=      5-min Rain = 0
KMC5 091348Z 27011KT 05/02 A3021 RMK A01 T00450021  RH  085%=      5-min Rain = 0
KMC5 091349Z 27010KT 05/02 A3021 RMK A01 T00460021  RH  084%=      5-min Rain = 0
KMC5 091350Z 27010KT 05/02 A3021 RMK A01 T00460021  RH  084%=      5-min Rain = 0
KMC5 091351Z 27010KT 05/02 A3021 RMK A01 T00460021  RH  084%=      5-min Rain = 0
KMC5 091352Z 27010KT 05/02 A3021 RMK A01 T00460022  RH  084%=      5-min Rain = 0
KMC5 091353Z 27010KT 05/02 A3021 RMK A01 T00460022  RH  084%=      5-min Rain = 0
KMC5 091354Z 27009KT 05/02 A3021 RMK A01 T00460022  RH  085%=      5-min Rain = 0
KMC5 091355Z 27009KT 05/02 A3021 RMK A01 T00450022  RH  085%=      5-min Rain = 0
KMC5 091356Z 27010KT 05/02 A3021 RMK A01 T00460022  RH  085%=      5-min Rain = 0
KMC5 091357Z 27009KT 05/02 A3021 RMK A01 T00460023  RH  085%=      5-min Rain = 0
KMC5 091358Z 27009KT 05/02 A3021 RMK A01 T00470023  RH  085%=      5-min Rain = 0
KMC5 091359Z 27009KT 05/02 A3021 RMK A01 T00470024  RH  085%=      5-min Rain = 0
KMC5 091400Z 27009KT 05/02 A3021 RMK A01 T00480024  RH  085%=      5-min Rain = 0
KMC5 091401Z 27009KT 05/03 A3021 RMK A01 T00490025  RH  084%=      5-min Rain = 0
KMC5 091402Z 28009KT 05/03 A3021 RMK A01 T00520026  RH  083%=      5-min Rain = 0
KMC5 091403Z 28009KT 05/03 A3021 RMK A01 T00530026  RH  082%=      5-min Rain = 0
KMC5 091404Z 28009KT 05/03 A3021 RMK A01 T00540027  RH  082%=      5-min Rain = 0
KMC5 091405Z 27009KT 06/03 A3021 RMK A01 T00550027  RH  082%=      5-min Rain = 0
KMC5 091406Z 28009KT 06/03 A3021 RMK A01 T00560026  RH  081%=      5-min Rain = 0
KMC5 091407Z 27009KT 06/03 A3021 RMK A01 T00560027  RH  082%=      5-min Rain = 0
KMC5 091408Z 27009KT 06/03 A3021 RMK A01 T00570029  RH  082%=      5-min Rain = 0
KMC5 091409Z 27009KT 06/03 A3021 RMK A01 T00580030  RH  082%=      5-min Rain = 0
KMC5 091410Z 27009KT 06/03 A3021 RMK A01 T00600031  RH  082%=      5-min Rain = 0
KMC5 091411Z 27009KT 06/03 A3021 RMK A01 T00620032  RH  081%=      5-min Rain = 0
KMC5 091412Z 28010KT 06/03 A3021 RMK A01 T00620031  RH  081%=      5-min Rain = 0
KMC5 091413Z 28010KT 06/03 A3021 RMK A01 T00630031  RH  080%=      5-min Rain = 0
KMC5 091414Z 28010KT 07/03 A3021 RMK A01 T00660032  RH  079%=      5-min Rain = 0
KMC5 091415Z 28010KT 07/03 A3021 RMK A01 T00680032  RH  078%=      5-min Rain = 0
KMC5 091416Z 28010KT 07/03 A3021 RMK A01 T00690031  RH  077%=      5-min Rain = 0
KMC5 091417Z 28010KT 07/03 A3021 RMK A01 T00700032  RH  077%=      5-min Rain = 0
KMC5 091418Z 28010KT 07/03 A3021 RMK A01 T00700032  RH  077%=      5-min Rain = 0
KMC5 091419Z 28010KT 07/03 A3021 RMK A01 T00710032  RH  076%=      5-min Rain = 0
KMC5 091420Z 28009KT 07/03 A3021 RMK A01 T00720032  RH  076%=      5-min Rain = 0
KMC5 091421Z 28010KT 07/03 A3021 RMK A01 T00720034  RH  077%=      5-min Rain = 0
KMC5 091422Z 28010KT 07/03 A3021 RMK A01 T00720034  RH  076%=      5-min Rain = 0
KMC5 091423Z 28010KT 07/03 A3021 RMK A01 T00730034  RH  076%=      5-min Rain = 0
KMC5 091424Z 28010KT 07/04 A3021 RMK A01 T00730035  RH  077%=      5-min Rain = 0
KMC5 091425Z 28009KT 07/04 A3021 RMK A01 T00740035  RH  077%=      5-min Rain = 0
KMC5 091426Z 28009KT 08/04 A3021 RMK A01 T00750036  RH  076%=      5-min Rain = 0
KMC5 091427Z 28009KT 08/04 A3021 RMK A01 T00750038  RH  077%=      5-min Rain = 0
KMC5 091428Z 28008KT 08/04 A3021 RMK A01 T00750039  RH  078%=      5-min Rain = 0
KMC5 091429Z 27008KT 08/04 A3022 RMK A01 T00760040  RH  078%=      5-min Rain = 0
KMC5 091430Z 27008KT 08/04 A3022 RMK A01 T00770041  RH  078%=      5-min Rain = 0
KMC5 091431Z 28009KT 08/04 A3022 RMK A01 T00780042  RH  077%=      5-min Rain = 0
KMC5 091432Z 28009KT 08/04 A3022 RMK A01 T00800041  RH  077%=      5-min Rain = 0
KMC5 091433Z 28009KT 08/04 A3022 RMK A01 T00810042  RH  076%=      5-min Rain = 0
KMC5 091434Z 28010KT 08/04 A3022 RMK A01 T00820042  RH  075%=      5-min Rain = 0
KMC5 091435Z 27010KT 08/04 A3022 RMK A01 T00840042  RH  075%=      5-min Rain = 0
KMC5 091436Z 27010KT 08/04 A3022 RMK A01 T00840041  RH  074%=      5-min Rain = 0
KMC5 091437Z 27009KT 09/04 A3022 RMK A01 T00850043  RH  075%=      5-min Rain = 0
KMC5 091438Z 27010KT 09/05 A3022 RMK A01 T00850045  RH  076%=      5-min Rain = 0
KMC5 091439Z 27010KT 08/04 A3022 RMK A01 T00840044  RH  076%=      5-min Rain = 0
KMC5 091440Z 27009KT 08/05 A3022 RMK A01 T00830045  RH  077%=      5-min Rain = 0
KMC5 091441Z 27010KT 08/05 A3022 RMK A01 T00820047  RH  078%=      5-min Rain = 0
KMC5 091442Z 26010KT 08/05 A3022 RMK A01 T00820046  RH  078%=      5-min Rain = 0
KMC5 091443Z 27009KT 08/05 A3022 RMK A01 T00810047  RH  079%=      5-min Rain = 0
KMC5 091444Z 27009KT 08/05 A3022 RMK A01 T00810048  RH  079%=      5-min Rain = 0
KMC5 091445Z 27009KT 08/05 A3022 RMK A01 T00830049  RH  079%=      5-min Rain = 0
KMC5 091446Z 27009KT 08/05 A3022 RMK A01 T00840048  RH  078%=      5-min Rain = 0
KMC5 091447Z 28010KT 09/05 A3022 RMK A01 T00850049  RH  078%=      5-min Rain = 0
KMC5 091448Z 27009KT 09/05 A3022 RMK A01 T00860051  RH  078%=      5-min Rain = 0
KMC5 091449Z 28010KT 09/05 A3022 RMK A01 T00880050  RH  077%=      5-min Rain = 0
KMC5 091450Z 28010KT 09/05 A3022 RMK A01 T00890050  RH  077%=      5-min Rain = 0
KMC5 091451Z 28010KT 09/05 A3022 RMK A01 T00900050  RH  076%=      5-min Rain = 0
KMC5 091452Z 28010KT 09/05 A3022 RMK A01 T00900051  RH  076%=      5-min Rain = 0
KMC5 091453Z 27009KT 09/05 A3022 RMK A01 T00910051  RH  076%=      5-min Rain = 0
KMC5 091454Z 27009KT 09/05 A3022 RMK A01 T00920050  RH  075%=      5-min Rain = 0
KMC5 091455Z 27009KT 09/05 A3022 RMK A01 T00930050  RH  075%=      5-min Rain = 0
KMC5 091456Z 26008KT 09/05 A3022 RMK A01 T00930052  RH  075%=      5-min Rain = 0
KMC5 091457Z 27009KT 09/05 A3022 RMK A01 T00940054  RH  076%=      5-min Rain = 0
KMC5 091458Z 27009KT 10/05 A3022 RMK A01 T00950053  RH  075%=      5-min Rain = 0
KMC5 091459Z 27009KT 10/05 A3022 RMK A01 T00970054  RH  075%=      5-min Rain = 0
KMC5 091500Z 27009KT 10/05 A3022 RMK A01 T00980054  RH  074%=      5-min Rain = 0
KMC5 091501Z 27008KT 10/06 A3022 RMK A01 T00990055  RH  074%=      5-min Rain = 0
KMC5 091502Z 27009KT 10/05 A3022 RMK A01 T01000054  RH  073%=      5-min Rain = 0
KMC5 091503Z 27009KT 10/05 A3022 RMK A01 T01020053  RH  072%=      5-min Rain = 0
KMC5 091504Z 27010KT 10/05 A3022 RMK A01 T01030052  RH  070%=      5-min Rain = 0
KMC5 091505Z 27010KT 10/05 A3022 RMK A01 T01040053  RH  071%=      5-min Rain = 0
KMC5 091506Z 27009KT 11/06 A3022 RMK A01 T01050055  RH  071%=      5-min Rain = 0
KMC5 091507Z 27009KT 11/06 A3022 RMK A01 T01060056  RH  072%=      5-min Rain = 0
KMC5 091508Z 27008KT 11/06 A3022 RMK A01 T01070058  RH  072%=      5-min Rain = 0
KMC5 091509Z 27009KT 11/06 A3022 RMK A01 T01090059  RH  071%=      5-min Rain = 0
KMC5 091510Z 27009KT 11/06 A3022 RMK A01 T01090056  RH  069%=      5-min Rain = 0
KMC5 091511Z 26008KT 11/06 A3022 RMK A01 T01100056  RH  070%=      5-min Rain = 0
KMC5 091512Z 27009KT 11/06 A3022 RMK A01 T01110055  RH  069%=      5-min Rain = 0
KMC5 091513Z 27008KT 11/06 A3022 RMK A01 T01110055  RH  068%=      5-min Rain = 0
KMC5 091514Z 27008KT 11/06 A3022 RMK A01 T01120057  RH  069%=      5-min Rain = 0
KMC5 091515Z 26008KT 11/06 A3022 RMK A01 T01130058  RH  069%=      5-min Rain = 0
KMC5 091516Z 26008KT 12/06 A3022 RMK A01 T01150062  RH  070%=      5-min Rain = 0
KMC5 091517Z 26008KT 12/06 A3022 RMK A01 T01170058  RH  067%=      5-min Rain = 0
KMC5 091518Z 26008KT 12/06 A3022 RMK A01 T01170058  RH  067%=      5-min Rain = 0
KMC5 091519Z 27009KT 12/06 A3022 RMK A01 T01180059  RH  067%=      5-min Rain = 0
KMC5 091520Z 26009KT 12/06 A3022 RMK A01 T01190057  RH  066%=      5-min Rain = 0
KMC5 091521Z 27009KT 12/06 A3022 RMK A01 T01180057  RH  066%=      5-min Rain = 0
KMC5 091522Z 27009KT 12/06 A3022 RMK A01 T01190057  RH  066%=      5-min Rain = 0
KMC5 091523Z 27009KT 12/06 A3022 RMK A01 T01200058  RH  066%=      5-min Rain = 0
KMC5 091524Z 27009KT 12/06 A3022 RMK A01 T01220057  RH  065%=      5-min Rain = 0
KMC5 091525Z 27008KT 12/06 A3022 RMK A01 T01220057  RH  064%=      5-min Rain = 0
KMC5 091526Z 26008KT 12/06 A3022 RMK A01 T01220059  RH  065%=      5-min Rain = 0
KMC5 091527Z 27007KT 12/06 A3022 RMK A01 T01240061  RH  065%=      5-min Rain = 0
KMC5 091528Z 27007KT 13/06 A3022 RMK A01 T01250059  RH  064%=      5-min Rain = 0
KMC5 091529Z 26007KT 13/06 A3022 RMK A01 T01270063  RH  065%=      5-min Rain = 0
KMC5 091530Z 26007KT 13/06 A3022 RMK A01 T01290063  RH  064%=      5-min Rain = 0
KMC5 091531Z 26006KT 13/06 A3022 RMK A01 T01310060  RH  062%=      5-min Rain = 0
KMC5 091532Z 26007KT 13/06 A3022 RMK A01 T01310059  RH  062%=      5-min Rain = 0
KMC5 091533Z 25006KT 13/06 A3023 RMK A01 T01320057  RH  061%=      5-min Rain = 0
KMC5 091534Z 26007KT 13/06 A3023 RMK A01 T01320056  RH  060%=      5-min Rain = 0
KMC5 091535Z 26006KT 13/06 A3023 RMK A01 T01320057  RH  061%=      5-min Rain = 0
KMC5 091536Z 26007KT 13/06 A3023 RMK A01 T01330057  RH  060%=      5-min Rain = 0
KMC5 091537Z 26007KT 13/06 A3023 RMK A01 T01340057  RH  060%=      5-min Rain = 0
KMC5 091538Z 26006KT 14/06 A3023 RMK A01 T01360058  RH  059%=      5-min Rain = 0
KMC5 091539Z 26007KT 14/06 A3023 RMK A01 T01380060  RH  059%=      5-min Rain = 0
KMC5 091540Z 26007KT 14/06 A3023 RMK A01 T01400059  RH  058%=      5-min Rain = 0
KMC5 091541Z 26007KT 14/06 A3023 RMK A01 T01400057  RH  057%=      5-min Rain = 0
KMC5 091542Z 26007KT 14/06 A3023 RMK A01 T01400060  RH  058%=      5-min Rain = 0
KMC5 091543Z 26007KT 14/06 A3022 RMK A01 T01420059  RH  058%=      5-min Rain = 0
KMC5 091544Z 26007KT 14/06 A3022 RMK A01 T01440059  RH  057%=      5-min Rain = 0
KMC5 091545Z 26007KT 15/06 A3023 RMK A01 T01450059  RH  056%=      5-min Rain = 0
KMC5 091546Z 26006KT 15/06 A3022 RMK A01 T01460057  RH  055%=      5-min Rain = 0
KMC5 091547Z 26006KT 15/06 A3022 RMK A01 T01460060  RH  056%=      5-min Rain = 0
KMC5 091548Z 26006KT 15/06 A3022 RMK A01 T01480060  RH  055%=      5-min Rain = 0
KMC5 091549Z 26006KT 15/06 A3022 RMK A01 T01500057  RH  054%=      5-min Rain = 0
KMC5 091550Z 26007KT 15/06 A3022 RMK A01 T01500058  RH  054%=      5-min Rain = 0
KMC5 091551Z 25007KT 15/06 A3022 RMK A01 T01510056  RH  053%=      5-min Rain = 0
KMC5 091552Z 26006KT 15/06 A3022 RMK A01 T01510055  RH  053%=      5-min Rain = 0
KMC5 091553Z 26006KT 15/06 A3023 RMK A01 T01520057  RH  053%=      5-min Rain = 0
KMC5 091554Z 26006KT 15/06 A3023 RMK A01 T01520057  RH  053%=      5-min Rain = 0
KMC5 091555Z 27006KT 15/06 A3023 RMK A01 T01530055  RH  052%=      5-min Rain = 0
KMC5 091556Z 26006KT 16/06 A3023 RMK A01 T01560056  RH  052%=      5-min Rain = 0
KMC5 091557Z 26007KT 16/05 A3023 RMK A01 T01570054  RH  050%=      5-min Rain = 0
KMC5 091558Z 26007KT 16/05 A3023 RMK A01 T01580053  RH  050%=      5-min Rain = 0
KMC5 091559Z 26007KT 16/05 A3023 RMK A01 T01590052  RH  049%=      5-min Rain = 0
KMC5 091600Z 26007KT 16/05 A3023 RMK A01 T01590052  RH  049%=      5-min Rain = 0
KMC5 091601Z 26007KT 16/05 A3023 RMK A01 T01590052  RH  049%=      5-min Rain = 0
KMC5 091602Z 27007KT 16/05 A3023 RMK A01 T01600053  RH  049%=      5-min Rain = 0
KMC5 091603Z 27006KT 16/05 A3023 RMK A01 T01620052  RH  048%=      5-min Rain = 0
KMC5 091604Z 27007KT 16/05 A3023 RMK A01 T01640053  RH  048%=      5-min Rain = 0
KMC5 091605Z 27007KT 17/05 A3023 RMK A01 T01660050  RH  046%=      5-min Rain = 0
KMC5 091606Z 26007KT 17/05 A3023 RMK A01 T01650052  RH  047%=      5-min Rain = 0
KMC5 091607Z 26007KT 17/05 A3023 RMK A01 T01650051  RH  047%=      5-min Rain = 0
KMC5 091608Z 27007KT 17/05 A3023 RMK A01 T01660052  RH  047%=      5-min Rain = 0
KMC5 091609Z 27006KT 17/06 A3023 RMK A01 T01670055  RH  047%=      5-min Rain = 0
KMC5 091610Z 26007KT 17/05 A3022 RMK A01 T01700050  RH  045%=      5-min Rain = 0
KMC5 091611Z 27005KT 17/05 A3022 RMK A01 T01700052  RH  045%=      5-min Rain = 0
KMC5 091612Z 27006KT 17/05 A3022 RMK A01 T01720052  RH  045%=      5-min Rain = 0
KMC5 091613Z 26005KT 17/05 A3022 RMK A01 T01730047  RH  043%=      5-min Rain = 0
KMC5 091614Z 27007KT 17/05 A3022 RMK A01 T01740049  RH  044%=      5-min Rain = 0
KMC5 091615Z 27006KT 17/05 A3022 RMK A01 T01730050  RH  044%=      5-min Rain = 0
KMC5 091616Z 27006KT 17/05 A3022 RMK A01 T01740051  RH  044%=      5-min Rain = 0
KMC5 091617Z 26005KT 18/05 A3022 RMK A01 T01750051  RH  044%=      5-min Rain = 0
KMC5 091618Z 26006KT 18/05 A3022 RMK A01 T01750050  RH  044%=      5-min Rain = 0
KMC5 091619Z 26005KT 18/05 A3022 RMK A01 T01760050  RH  044%=      5-min Rain = 0
KMC5 091620Z 26005KT 18/05 A3022 RMK A01 T01760050  RH  043%=      5-min Rain = 0
KMC5 091621Z 26005KT 18/05 A3022 RMK A01 T01760047  RH  042%=      5-min Rain = 0
KMC5 091622Z 27005KT 18/05 A3022 RMK A01 T01780048  RH  042%=      5-min Rain = 0
KMC5 091623Z 27005KT 18/04 A3022 RMK A01 T01790044  RH  041%=      5-min Rain = 0
KMC5 091624Z 27005KT 18/05 A3022 RMK A01 T01790047  RH  042%=      5-min Rain = 0
KMC5 091625Z 27005KT 18/05 A3022 RMK A01 T01820049  RH  041%=      5-min Rain = 0
KMC5 091626Z 27004KT 18/05 A3022 RMK A01 T01840048  RH  041%=      5-min Rain = 0
KMC5 091627Z 27004KT 19/05 A3022 RMK A01 T01860049  RH  040%=      5-min Rain = 0
KMC5 091628Z 28005KT 19/04 A3022 RMK A01 T01890044  RH  038%=      5-min Rain = 0
KMC5 091629Z 27006KT 19/04 A3022 RMK A01 T01910042  RH  037%=      5-min Rain = 0
KMC5 091630Z 27006KT 19/04 A3022 RMK A01 T01910040  RH  037%=      5-min Rain = 0
KMC5 091631Z 28006KT 19/03 A3022 RMK A01 T01910034  RH  035%=      5-min Rain = 0
KMC5 091632Z 28006KT 19/04 A3022 RMK A01 T01900037  RH  036%=      5-min Rain = 0
KMC5 091633Z 28006KT 19/04 A3022 RMK A01 T01900038  RH  036%=      5-min Rain = 0
KMC5 091634Z 28006KT 19/04 A3022 RMK A01 T01900036  RH  036%=      5-min Rain = 0
KMC5 091635Z 29004KT 19/04 A3022 RMK A01 T01880041  RH  038%=      5-min Rain = 0
KMC5 091636Z 30006KT 19/04 A3022 RMK A01 T01890035  RH  036%=      5-min Rain = 0
KMC5 091637Z 28006KT 19/04 A3022 RMK A01 T01890035  RH  036%=      5-min Rain = 0
KMC5 091638Z 29005KT 19/04 A3022 RMK A01 T01910037  RH  036%=      5-min Rain = 0
KMC5 091639Z 29005KT 19/04 A3022 RMK A01 T01920036  RH  035%=      5-min Rain = 0
KMC5 091640Z 29006KT 19/03 A3022 RMK A01 T01920034  RH  035%=      5-min Rain = 0
KMC5 091641Z 28006KT 19/03 A3022 RMK A01 T01920030  RH  034%=      5-min Rain = 0
KMC5 091642Z 29006KT 19/03 A3022 RMK A01 T01920031  RH  034%=      5-min Rain = 0
KMC5 091643Z 29005KT 19/04 A3022 RMK A01 T01920036  RH  035%=      5-min Rain = 0
KMC5 091644Z 29005KT 19/04 A3022 RMK A01 T01920036  RH  036%=      5-min Rain = 0
KMC5 091645Z 29006KT 19/03 A3022 RMK A01 T01930031  RH  034%=      5-min Rain = 0
KMC5 091646Z 28006KT 20/03 A3022 RMK A01 T01950027  RH  033%=      5-min Rain = 0
KMC5 091647Z 27005KT 20/03 A3022 RMK A01 T01960031  RH  034%=      5-min Rain = 0
KMC5 091648Z 27005KT 20/03 A3022 RMK A01 T01970028  RH  033%=      5-min Rain = 0
KMC5 091649Z 26004KT 20/03 A3022 RMK A01 T01970028  RH  033%=      5-min Rain = 0
KMC5 091650Z 26006KT 20/03 A3022 RMK A01 T01990027  RH  032%=      5-min Rain = 0
KMC5 091651Z 26004KT 20/02 A3022 RMK A01 T02000022  RH  031%=      5-min Rain = 0
KMC5 091652Z 29003KT 20/02 A3022 RMK A01 T02020021  RH  030%=      5-min Rain = 0
KMC5 091653Z 28005KT 20/02 A3022 RMK A01 T02020021  RH  030%=      5-min Rain = 0
KMC5 091654Z 27004KT 20/02 A3022 RMK A01 T02000022  RH  031%=      5-min Rain = 0
KMC5 091655Z 26005KT 20/02 A3022 RMK A01 T01990017  RH  030%=      5-min Rain = 0
KMC5 091656Z 26006KT 20/01 A3021 RMK A01 T02000011  RH  028%=      5-min Rain = 0
KMC5 091657Z 25004KT 20/01 A3021 RMK A01 T02010014  RH  029%=      5-min Rain = 0
KMC5 091658Z 25004KT 20/02 A3021 RMK A01 T02010016  RH  029%=      5-min Rain = 0
KMC5 091659Z 28005KT 20/02 A3021 RMK A01 T02010015  RH  029%=      5-min Rain = 0
KMC5 091700Z 28003KT 20/01 A3021 RMK A01 T02010014  RH  029%=      5-min Rain = 0
KMC5 091701Z 26004KT 20/02 A3021 RMK A01 T02020015  RH  029%=      5-min Rain = 0
KMC5 091702Z 24005KT 20/01 A3021 RMK A01 T02030011  RH  028%=      5-min Rain = 0
KMC5 091703Z 23004KT 20/M00 A3021 RMK A01 T02041001  RH  025%=      5-min Rain = 0
KMC5 091704Z 24005KT 20/00 A3021 RMK A01 T02040004  RH  026%=      5-min Rain = 0
KMC5 091705Z 24005KT 21/02 A3021 RMK A01 T02050015  RH  028%=      5-min Rain = 0
KMC5 091706Z 23003KT 21/01 A3021 RMK A01 T02060011  RH  027%=      5-min Rain = 0
KMC5 091707Z 24003KT 21/01 A3021 RMK A01 T02060008  RH  027%=      5-min Rain = 0
KMC5 091708Z 23002KT 21/01 A3021 RMK A01 T02060012  RH  027%=      5-min Rain = 0
KMC5 091709Z 21002KT 21/01 A3021 RMK A01 T02070008  RH  026%=      5-min Rain = 0
KMC5 091710Z 23003KT 21/01 A3021 RMK A01 T02080013  RH  027%=      5-min Rain = 0
KMC5 091711Z 23007KT 21/01 A3021 RMK A01 T02090008  RH  026%=      5-min Rain = 0
KMC5 091712Z 22006KT 21/01 A3021 RMK A01 T02100007  RH  026%=      5-min Rain = 0
KMC5 091713Z 22005KT 21/M00 A3021 RMK A01 T02101001  RH  024%=      5-min Rain = 0
KMC5 091714Z 25005KT 21/M00 A3021 RMK A01 T02101003  RH  024%=      5-min Rain = 0
KMC5 091715Z 23004KT 21/M00 A3021 RMK A01 T02101004  RH  024%=      5-min Rain = 0
KMC5 091716Z 23003KT 21/M01 A3021 RMK A01 T02111007  RH  023%=      5-min Rain = 0
KMC5 091717Z 24006KT 21/M02 A3021 RMK A01 T02111018  RH  021%=      5-min Rain = 0
KMC5 091718Z 24005KT 21/M00 A3021 RMK A01 T02101004  RH  024%=      5-min Rain = 0
KMC5 091719Z 25004KT 21/01 A3021 RMK A01 T02080012  RH  027%=      5-min Rain = 0
KMC5 091720Z 22005KT 21/01 A3021 RMK A01 T02080014  RH  028%=      5-min Rain = 0
KMC5 091721Z 24004KT 21/02 A3021 RMK A01 T02090019  RH  028%=      5-min Rain = 0
KMC5 091722Z 26005KT 21/01 A3021 RMK A01 T02100012  RH  027%=      5-min Rain = 0
KMC5 091723Z 25006KT 21/M01 A3021 RMK A01 T02101008  RH  023%=      5-min Rain = 0
KMC5 091724Z 23007KT 21/M02 A3021 RMK A01 T02111020  RH  021%=      5-min Rain = 0
KMC5 091725Z 22006KT 21/M02 A3021 RMK A01 T02121022  RH  021%=      5-min Rain = 0
KMC5 091726Z 20005KT 21/M02 A3021 RMK A01 T02141020  RH  021%=      5-min Rain = 0
KMC5 091727Z 20005KT 22/M01 A3021 RMK A01 T02151006  RH  023%=      5-min Rain = 0
KMC5 091728Z 22007KT 22/M02 A302 RMK A01 T02161018  RH  021%=      5-min Rain = 0
KMC5 091729Z 21004KT 22/M03 A3021 RMK A01 T02161027  RH  019%=      5-min Rain = 0
KMC5 091730Z 22006KT 22/M01 A302 RMK A01 T02151012  RH  022%=      5-min Rain = 0
KMC5 091731Z 24006KT 22/M00 A302 RMK A01 T02151002  RH  023%=      5-min Rain = 0
KMC5 091732Z 22006KT 22/M02 A302 RMK A01 T02151019  RH  021%=      5-min Rain = 0
KMC5 091733Z 20006KT 22/M01 A302 RMK A01 T02161014  RH  021%=      5-min Rain = 0
KMC5 091734Z 22007KT 22/M01 A302 RMK A01 T02171014  RH  021%=      5-min Rain = 0
KMC5 091735Z 22008KT 22/M02 A302 RMK A01 T02171019  RH  020%=      5-min Rain = 0
KMC5 091736Z 22008KT 22/M04 A302 RMK A01 T02171036  RH  018%=      5-min Rain = 0
KMC5 091737Z 22007KT 22/M07 A302 RMK A01 T02181066  RH  014%=      5-min Rain = 0
KMC5 091738Z 22007KT 22/M06 A302 RMK A01 T02181060  RH  015%=      5-min Rain = 0
KMC5 091739Z 24005KT 22/M05 A302 RMK A01 T02171050  RH  016%=      5-min Rain = 0
KMC5 091740Z 24004KT 22/M04 A302 RMK A01 T02161040  RH  018%=      5-min Rain = 0
KMC5 091741Z 24003KT 22/M04 A302 RMK A01 T02161039  RH  018%=      5-min Rain = 0
KMC5 091742Z 24005KT 22/M03 A302 RMK A01 T02161032  RH  019%=      5-min Rain = 0
KMC5 091743Z 22006KT 22/M02 A302 RMK A01 T02171023  RH  020%=      5-min Rain = 0
KMC5 091744Z 23006KT 22/M02 A302 RMK A01 T02171020  RH  020%=      5-min Rain = 0
KMC5 091745Z 23005KT 22/M02 A302 RMK A01 T02171017  RH  021%=      5-min Rain = 0
KMC5 091746Z 23004KT 22/M02 A302 RMK A01 T02171020  RH  020%=      5-min Rain = 0
KMC5 091747Z 22006KT 22/M02 A302 RMK A01 T02171024  RH  020%=      5-min Rain = 0
KMC5 091748Z 21007KT 22/M02 A302 RMK A01 T02181024  RH  020%=      5-min Rain = 0
KMC5 091749Z 19007KT 22/M03 A302 RMK A01 T02211026  RH  019%=      5-min Rain = 0
KMC5 091750Z 22006KT 22/M02 A302 RMK A01 T02211021  RH  020%=      5-min Rain = 0
KMC5 091751Z 22006KT 22/M02 A302 RMK A01 T02221015  RH  020%=      5-min Rain = 0
KMC5 091752Z 23005KT 22/M02 A302 RMK A01 T02241019  RH  020%=      5-min Rain = 0
KMC5 091753Z 20005KT 22/M02 A302 RMK A01 T02241018  RH  020%=      5-min Rain = 0
KMC5 091754Z 22004KT 22/M02 A302 RMK A01 T02231016  RH  020%=      5-min Rain = 0
KMC5 091755Z 23006KT 22/M02 A302 RMK A01 T02221019  RH  020%=      5-min Rain = 0
KMC5 091756Z 22006KT 22/M02 A302 RMK A01 T02221022  RH  019%=      5-min Rain = 0
KMC5 091757Z 20004KT 22/M02 A302 RMK A01 T02221020  RH  020%=      5-min Rain = 0
KMC5 091758Z 20006KT 22/M02 A302 RMK A01 T02221017  RH  020%=      5-min Rain = 0
KMC5 091759Z 20007KT 22/M02 A3019 RMK A01 T02231016  RH  020%=      5-min Rain = 0
KMC5 091800Z 22005KT 22/M02 A3019 RMK A01 T02241023  RH  019%=      5-min Rain = 0
KMC5 091801Z 22006KT 22/M01 A3019 RMK A01 T02241012  RH  021%=      5-min Rain = 0
KMC5 091802Z 22006KT 23/M02 A3019 RMK A01 T02281015  RH  020%=      5-min Rain = 0
KMC5 091803Z 24007KT 23/M02 A3019 RMK A01 T02271017  RH  019%=      5-min Rain = 0
KMC5 091804Z 25006KT 22/M02 A3019 RMK A01 T02241021  RH  019%=      5-min Rain = 0
KMC5 091805Z 23004KT 22/M02 A3019 RMK A01 T02231020  RH  020%=      5-min Rain = 0
KMC5 091806Z 23004KT 22/M02 A3019 RMK A01 T02241020  RH  020%=      5-min Rain = 0
KMC5 091807Z 20006KT 23/M02 A3019 RMK A01 T02271023  RH  019%=      5-min Rain = 0
KMC5 091808Z 21006KT 23/M02 A3019 RMK A01 T02291021  RH  019%=      5-min Rain = 0
KMC5 091809Z 21005KT 23/M02 A3019 RMK A01 T02331019  RH  019%=      5-min Rain = 0
KMC5 091810Z 23004KT 24/M03 A3019 RMK A01 T02351026  RH  017%=      5-min Rain = 0
KMC5 091811Z 21003KT 23/M03 A3019 RMK A01 T02331029  RH  017%=      5-min Rain = 0
KMC5 091812Z 18003KT 23/M03 A3019 RMK A01 T02311030  RH  017%=      5-min Rain = 0
KMC5 091813Z 20004KT 23/M03 A3019 RMK A01 T02301025  RH  018%=      5-min Rain = 0
KMC5 091814Z 23006KT 23/M02 A3019 RMK A01 T02301019  RH  019%=      5-min Rain = 0
KMC5 091815Z 22007KT 23/M02 A3019 RMK A01 T02301016  RH  019%=      5-min Rain = 0
KMC5 091816Z 20008KT 23/M02 A3018 RMK A01 T02301016  RH  019%=      5-min Rain = 0
KMC5 091817Z 20008KT 23/M02 A3018 RMK A01 T02281017  RH  019%=      5-min Rain = 0
KMC5 091818Z 22006KT 23/M02 A3018 RMK A01 T02271018  RH  019%=      5-min Rain = 0
KMC5 091819Z 25003KT 23/M02 A3018 RMK A01 T02261020  RH  019%=      5-min Rain = 0
KMC5 091820Z 23002KT 23/M02 A3018 RMK A01 T02251017  RH  020%=      5-min Rain = 0
KMC5 091821Z 24001KT 23/M02 A3018 RMK A01 T02261021  RH  019%=      5-min Rain = 0
KMC5 091822Z 20001KT 23/M02 A3018 RMK A01 T02251020  RH  019%=      5-min Rain = 0
KMC5 091823Z 21007KT 23/M02 A3018 RMK A01 T02271019  RH  019%=      5-min Rain = 0
KMC5 091824Z 20007KT 23/M02 A3018 RMK A01 T02291024  RH  018%=      5-min Rain = 0
KMC5 091825Z 21006KT 23/M02 A3018 RMK A01 T02291022  RH  019%=      5-min Rain = 0
KMC5 091826Z 21005KT 23/M03 A3018 RMK A01 T02281026  RH  018%=      5-min Rain = 0
KMC5 091827Z 23003KT 23/M03 A3018 RMK A01 T02261025  RH  019%=      5-min Rain = 0
KMC5 091828Z 26002KT 23/M02 A3018 RMK A01 T02261024  RH  019%=      5-min Rain = 0
KMC5 091829Z 18003KT 23/M02 A3017 RMK A01 T02271023  RH  019%=      5-min Rain = 0
KMC5 091830Z 17002KT 23/M03 A3017 RMK A01 T02271025  RH  018%=      5-min Rain = 0
KMC5 091831Z 22003KT 23/M02 A3017 RMK A01 T02301022  RH  019%=      5-min Rain = 0
KMC5 091832Z 24005KT 23/M02 A3017 RMK A01 T02311024  RH  018%=      5-min Rain = 0
KMC5 091833Z 23005KT 23/M03 A3017 RMK A01 T02321032  RH  017%=      5-min Rain = 0
KMC5 091834Z 23007KT 23/M03 A3017 RMK A01 T02321029  RH  017%=      5-min Rain = 0
KMC5 091835Z 23005KT 23/M03 A3017 RMK A01 T02321030  RH  017%=      5-min Rain = 0
KMC5 091836Z 21005KT 23/M03 A3017 RMK A01 T02311027  RH  018%=      5-min Rain = 0
KMC5 091837Z 21007KT 23/M03 A3017 RMK A01 T02321029  RH  017%=      5-min Rain = 0
KMC5 091838Z 22006KT 23/M04 A3017 RMK A01 T02341036  RH  016%=      5-min Rain = 0
KMC5 091839Z 22008KT 24/M04 A3017 RMK A01 T02351042  RH  015%=      5-min Rain = 0
KMC5 091840Z 21008KT 24/M04 A3017 RMK A01 T02351044  RH  015%=      5-min Rain = 0
KMC5 091841Z 21008KT 24/M04 A3017 RMK A01 T02371041  RH  015%=      5-min Rain = 0
KMC5 091842Z 21009KT 24/M04 A3016 RMK A01 T02391043  RH  015%=      5-min Rain = 0
KMC5 091843Z 22007KT 24/M05 A3016 RMK A01 T02401047  RH  014%=      5-min Rain = 0
KMC5 091844Z 22008KT 24/M05 A3016 RMK A01 T02371049  RH  014%=      5-min Rain = 0
KMC5 091845Z 23007KT 23/M05 A3016 RMK A01 T02341046  RH  015%=      5-min Rain = 0
KMC5 091846Z 22006KT 24/M05 A3016 RMK A01 T02361045  RH  015%=      5-min Rain = 0
KMC5 091847Z 21005KT 24/M05 A3016 RMK A01 T02371048  RH  015%=      5-min Rain = 0
KMC5 091848Z 24004KT 24/M05 A3016 RMK A01 T02351047  RH  015%=      5-min Rain = 0
KMC5 091849Z 24005KT 24/M04 A3016 RMK A01 T02351041  RH  016%=      5-min Rain = 0
KMC5 091850Z 21005KT 24/M04 A3016 RMK A01 T02371039  RH  016%=      5-min Rain = 0
KMC5 091851Z 19007KT 24/M04 A3016 RMK A01 T02401042  RH  015%=      5-min Rain = 0
KMC5 091852Z 20006KT 24/M05 A3016 RMK A01 T02401052  RH  014%=      5-min Rain = 0
KMC5 091853Z 21008KT 24/M05 A3016 RMK A01 T02401049  RH  014%=      5-min Rain = 0
KMC5 091854Z 21007KT 24/M06 A3016 RMK A01 T02381055  RH  014%=      5-min Rain = 0
KMC5 091855Z 22008KT 24/M06 A3016 RMK A01 T02371061  RH  013%=      5-min Rain = 0
KMC5 091856Z 23007KT 24/M06 A3016 RMK A01 T02381062  RH  013%=      5-min Rain = 0
KMC5 091857Z 20009KT 24/M06 A3016 RMK A01 T02411060  RH  013%=      5-min Rain = 0
KMC5 091858Z 21008KT 24/M07 A3016 RMK A01 T02401070  RH  012%=      5-min Rain = 0
KMC5 091859Z 20008KT 24/M06 A3016 RMK A01 T02381063  RH  013%=      5-min Rain = 0
KMC5 091900Z 22009KT 24/M06 A3015 RMK A01 T02401059  RH  013%=      5-min Rain = 0
KMC5 091901Z 23010KT 24/M06 A3015 RMK A01 T02411060  RH  013%=      5-min Rain = 0
KMC5 091902Z 24008KT 24/M06 A3015 RMK A01 T02391062  RH  013%=      5-min Rain = 0
KMC5 091903Z 24008KT 24/M06 A3015 RMK A01 T02371061  RH  013%=      5-min Rain = 0
KMC5 091904Z 23007KT 24/M06 A3015 RMK A01 T02361060  RH  013%=      5-min Rain = 0
KMC5 091905Z 24010KT 24/M06 A3015 RMK A01 T02381062  RH  013%=      5-min Rain = 0
KMC5 091906Z 24009KT 24/M06 A3015 RMK A01 T02391060  RH  013%=      5-min Rain = 0
KMC5 091907Z 23007KT 24/M06 A3015 RMK A01 T02391058  RH  013%=      5-min Rain = 0
KMC5 091908Z 23008KT 24/M06 A3015 RMK A01 T02391058  RH  013%=      5-min Rain = 0
KMC5 091909Z 24010KT 24/M06 A3015 RMK A01 T02411059  RH  013%=      5-min Rain = 0
KMC5 091910Z 23008KT 24/M06 A3015 RMK A01 T02411056  RH  013%=      5-min Rain = 0
KMC5 091911Z 22009KT 24/M05 A3015 RMK A01 T02431053  RH  014%=      5-min Rain = 0
KMC5 091912Z 22011KT 25/M05 A3015 RMK A01 T02451053  RH  013%=      5-min Rain = 0
KMC5 091913Z 22009KT 24/M06 A3015 RMK A01 T02401060  RH  013%=      5-min Rain = 0
KMC5 091914Z 24006KT 24/M06 A3015 RMK A01 T02371058  RH  014%=      5-min Rain = 0
KMC5 091915Z 23006KT 24/M06 A3015 RMK A01 T02361056  RH  014%=      5-min Rain = 0
KMC5 091916Z 23010KT 24/M05 A3014 RMK A01 T02371052  RH  014%=      5-min Rain = 0
KMC5 091917Z 23009KT 24/M05 A3014 RMK A01 T02381054  RH  014%=      5-min Rain = 0
KMC5 091918Z 23008KT 24/M06 A3014 RMK A01 T02381056  RH  014%=      5-min Rain = 0
KMC5 091919Z 23008KT 24/M06 A3014 RMK A01 T02371056  RH  014%=      5-min Rain = 0
KMC5 091920Z 25007KT 24/M06 A3014 RMK A01 T02381058  RH  014%=      5-min Rain = 0
KMC5 091921Z 25008KT 24/M06 A3014 RMK A01 T02381057  RH  014%=      5-min Rain = 0
KMC5 091922Z 23010KT 24/M06 A3014 RMK A01 T02401058  RH  013%=      5-min Rain = 0
KMC5 091923Z 22012KT 24/M06 A3014 RMK A01 T02411055  RH  014%=      5-min Rain = 0
KMC5 091924Z 22011KT 24/M06 A3014 RMK A01 T02421055  RH  013%=      5-min Rain = 0
KMC5 091925Z 21009KT 24/M06 A3014 RMK A01 T02401057  RH  013%=      5-min Rain = 0
KMC5 091926Z 23009KT 24/M05 A3014 RMK A01 T02391051  RH  014%=      5-min Rain = 0
KMC5 091927Z 22009KT 24/M05 A3014 RMK A01 T02391047  RH  015%=      5-min Rain = 0
KMC5 091928Z 23008KT 24/M04 A3014 RMK A01 T02391041  RH  015%=      5-min Rain = 0
KMC5 091929Z 24007KT 24/M04 A3014 RMK A01 T02411042  RH  015%=      5-min Rain = 0
KMC5 091930Z 23008KT 24/M04 A3013 RMK A01 T02401040  RH  015%=      5-min Rain = 0
KMC5 091931Z 23011KT 24/M03 A3013 RMK A01 T02421032  RH  016%=      5-min Rain = 0
KMC5 091932Z 23011KT 24/M03 A3013 RMK A01 T02431032  RH  016%=      5-min Rain = 0
KMC5 091933Z 24009KT 24/M03 A3013 RMK A01 T02431034  RH  016%=      5-min Rain = 0
KMC5 091934Z 24009KT 24/M03 A3013 RMK A01 T02421028  RH  017%=      5-min Rain = 0
KMC5 091935Z 23011KT 24/M03 A3013 RMK A01 T02441026  RH  016%=      5-min Rain = 0
KMC5 091936Z 22012KT 25/M03 A3013 RMK A01 T02451026  RH  016%=      5-min Rain = 0
KMC5 091937Z 20008KT 24/M03 A3013 RMK A01 T02441025  RH  017%=      5-min Rain = 0
KMC5 091938Z 20007KT 24/M03 A3013 RMK A01 T02431025  RH  017%=      5-min Rain = 0
KMC5 091939Z 19007KT 24/M02 A3013 RMK A01 T02421024  RH  017%=      5-min Rain = 0
KMC5 091940Z 18011KT 24/M02 A3013 RMK A01 T02401021  RH  018%=      5-min Rain = 0
KMC5 091941Z 20014KT 24/M02 A3013 RMK A01 T02411021  RH  017%=      5-min Rain = 0
KMC5 091942Z 20013KT 24/M02 A3013 RMK A01 T02391024  RH  017%=      5-min Rain = 0
KMC5 091943Z 19011KT 24/M02 A3013 RMK A01 T02371023  RH  018%=      5-min Rain = 0
KMC5 091944Z 19011KT 24/M03 A3013 RMK A01 T02371028  RH  017%=      5-min Rain = 0
KMC5 091945Z 19009KT 24/M03 A3013 RMK A01 T02361028  RH  017%=      5-min Rain = 0
KMC5 091946Z 21009KT 24/M03 A3013 RMK A01 T02361027  RH  017%=      5-min Rain = 0
KMC5 091947Z 23008KT 24/M03 A3013 RMK A01 T02401026  RH  017%=      5-min Rain = 0
KMC5 091948Z 23011KT 24/M03 A3013 RMK A01 T02421029  RH  016%=      5-min Rain = 0
KMC5 091949Z 22009KT 24/M03 A3013 RMK A01 T02431031  RH  016%=      5-min Rain = 0
KMC5 091950Z 21010KT 24/M03 A3013 RMK A01 T02411028  RH  016%=      5-min Rain = 0
KMC5 091951Z 20010KT 24/M03 A3013 RMK A01 T02411029  RH  016%=      5-min Rain = 0
KMC5 091952Z 20007KT 24/M03 A3013 RMK A01 T02391033  RH  016%=      5-min Rain = 0
KMC5 091953Z 18011KT 24/M03 A3012 RMK A01 T02381028  RH  017%=      5-min Rain = 0
KMC5 091954Z 20009KT 24/M03 A3012 RMK A01 T02391027  RH  017%=      5-min Rain = 0
KMC5 091955Z 19010KT 24/M03 A3012 RMK A01 T02401030  RH  016%=      5-min Rain = 0
KMC5 091956Z 18012G17KT 24/M03 A3012 RMK A01 T02381031  RH  017%=      5-min Rain = 0
KMC5 091957Z 20013KT 24/M03 A3012 RMK A01 T02391025  RH  017%=      5-min Rain = 0
KMC5 091958Z 21011KT 24/M03 A3012 RMK A01 T02421029  RH  016%=      5-min Rain = 0
KMC5 091959Z 22009KT 24/M03 A3012 RMK A01 T02401029  RH  017%=      5-min Rain = 0
KMC5 092000Z 22012KT 24/M03 A3012 RMK A01 T02391028  RH  017%=      5-min Rain = 0
KMC5 092001Z 22008KT 24/M03 A3012 RMK A01 T02401032  RH  016%=      5-min Rain = 0
KMC5 092002Z 20008G13KT 24/M03 A3012 RMK A01 T02381031  RH  017%=      5-min Rain = 0
KMC5 092003Z 21009G14KT 24/M03 A3012 RMK A01 T02381030  RH  017%=      5-min Rain = 0
KMC5 092004Z 21010KT 24/M03 A3012 RMK A01 T02371029  RH  017%=      5-min Rain = 0
KMC5 092005Z 21009KT 24/M03 A3012 RMK A01 T02381028  RH  017%=      5-min Rain = 0
KMC5 092006Z 20009KT 24/M03 A3012 RMK A01 T02391027  RH  017%=      5-min Rain = 0
KMC5 092007Z 19010KT 24/M03 A3012 RMK A01 T02421028  RH  016%=      5-min Rain = 0
KMC5 092008Z 19009KT 24/M03 A3012 RMK A01 T02421031  RH  016%=      5-min Rain = 0
KMC5 092009Z 19011KT 24/M03 A3012 RMK A01 T02391032  RH  016%=      5-min Rain = 0
KMC5 092010Z 20011KT 24/M03 A3012 RMK A01 T02381034  RH  016%=      5-min Rain = 0
KMC5 092011Z 19008KT 24/M04 A3012 RMK A01 T02351035  RH  016%=      5-min Rain = 0
KMC5 092012Z 20010KT 24/M03 A3012 RMK A01 T02381027  RH  017%=      5-min Rain = 0
KMC5 092013Z 21010KT 24/M03 A3012 RMK A01 T02411028  RH  017%=      5-min Rain = 0
KMC5 092014Z 21008KT 24/M03 A3012 RMK A01 T02381029  RH  017%=      5-min Rain = 0
KMC5 092015Z 19010KT 24/M03 A3012 RMK A01 T02371025  RH  017%=      5-min Rain = 0
KMC5 092016Z 19010KT 24/M02 A3012 RMK A01 T02391019  RH  018%=      5-min Rain = 0
KMC5 092017Z 18009KT 24/M02 A3012 RMK A01 T02391019  RH  018%=      5-min Rain = 0
KMC5 092018Z 18008KT 24/M02 A3012 RMK A01 T02381023  RH  017%=      5-min Rain = 0
KMC5 092019Z 19009KT 24/M02 A3012 RMK A01 T02361024  RH  018%=      5-min Rain = 0
KMC5 092020Z 20012KT 24/M03 A3012 RMK A01 T02361026  RH  017%=      5-min Rain = 0
KMC5 092021Z 20013KT 24/M03 A3012 RMK A01 T02371031  RH  017%=      5-min Rain = 0
KMC5 092022Z 21010KT 24/M03 A3012 RMK A01 T02381032  RH  016%=      5-min Rain = 0
KMC5 092023Z 21009KT 24/M03 A3012 RMK A01 T02381031  RH  017%=      5-min Rain = 0
KMC5 092024Z 20008KT 24/M03 A3012 RMK A01 T02381027  RH  017%=      5-min Rain = 0
KMC5 092025Z 21009KT 24/M03 A3012 RMK A01 T02371027  RH  017%=      5-min Rain = 0
KMC5 092026Z 23007KT 24/M02 A3012 RMK A01 T02371024  RH  017%=      5-min Rain = 0
KMC5 092027Z 24008KT 24/M02 A3012 RMK A01 T02391017  RH  018%=      5-min Rain = 0
KMC5 092028Z 21008KT 24/M02 A3012 RMK A01 T02411016  RH  018%=      5-min Rain = 0
KMC5 092029Z 21011KT 24/M02 A3011 RMK A01 T02411016  RH  018%=      5-min Rain = 0
KMC5 092030Z 21011KT 24/M01 A3011 RMK A01 T02411011  RH  019%=      5-min Rain = 0
KMC5 092031Z 22009KT 24/M01 A3011 RMK A01 T02391013  RH  019%=      5-min Rain = 0
KMC5 092032Z 22008KT 24/M01 A3011 RMK A01 T02391014  RH  019%=      5-min Rain = 0
KMC5 092033Z 23008KT 24/M01 A3011 RMK A01 T02371014  RH  019%=      5-min Rain = 0
KMC5 092034Z 22009KT 24/M01 A3011 RMK A01 T02371007  RH  020%=      5-min Rain = 0
KMC5 092035Z 24009KT 24/M00 A3011 RMK A01 T02391001  RH  020%=      5-min Rain = 0
KMC5 092036Z 22007KT 24/00 A3011 RMK A01 T02400001  RH  021%=      5-min Rain = 0
KMC5 092037Z 22007KT 24/00 A3011 RMK A01 T02410000  RH  020%=      5-min Rain = 0
KMC5 092038Z 19010KT 24/M00 A3011 RMK A01 T02421001  RH  020%=      5-min Rain = 0
KMC5 092039Z 19013KT 24/M01 A3011 RMK A01 T02421011  RH  019%=      5-min Rain = 0
KMC5 092040Z 19009KT 24/M01 A3011 RMK A01 T02371011  RH  019%=      5-min Rain = 0
KMC5 092041Z 19009KT 24/M01 A3011 RMK A01 T02361009  RH  020%=      5-min Rain = 0
KMC5 092042Z 21011KT 24/M01 A3011 RMK A01 T02371008  RH  020%=      5-min Rain = 0
KMC5 092043Z 22011KT 24/M01 A3011 RMK A01 T02401011  RH  019%=      5-min Rain = 0
KMC5 092044Z 22008KT 24/M02 A3011 RMK A01 T02391015  RH  018%=      5-min Rain = 0
KMC5 092045Z 21010KT 24/M01 A3011 RMK A01 T02381014  RH  019%=      5-min Rain = 0
KMC5 092046Z 21010KT 24/M02 A3011 RMK A01 T02381015  RH  019%=      5-min Rain = 0
KMC5 092047Z 21008KT 24/M02 A3011 RMK A01 T02371015  RH  019%=      5-min Rain = 0
KMC5 092048Z 22008KT 24/M02 A3011 RMK A01 T02371015  RH  019%=      5-min Rain = 0
KMC5 092049Z 20011KT 24/M02 A3011 RMK A01 T02381015  RH  019%=      5-min Rain = 0
KMC5 092050Z 20012KT 24/M02 A3011 RMK A01 T02401019  RH  018%=      5-min Rain = 0
KMC5 092051Z 21008KT 24/M02 A3011 RMK A01 T02391021  RH  018%=      5-min Rain = 0
KMC5 092052Z 19009KT 24/M02 A3011 RMK A01 T02381021  RH  018%=      5-min Rain = 0
KMC5 092053Z 19010KT 24/M02 A3011 RMK A01 T02381024  RH  017%=      5-min Rain = 0
KMC5 092054Z 18012KT 24/M02 A3011 RMK A01 T02381018  RH  018%=      5-min Rain = 0
KMC5 092055Z 19010KT 24/M02 A3011 RMK A01 T02381018  RH  018%=      5-min Rain = 0
KMC5 092056Z 21011KT 24/M02 A3011 RMK A01 T02391021  RH  018%=      5-min Rain = 0
KMC5 092057Z 21011KT 24/M02 A3011 RMK A01 T02391024  RH  017%=      5-min Rain = 0
KMC5 092058Z 20009KT 24/M03 A3011 RMK A01 T02391025  RH  017%=      5-min Rain = 0
KMC5 092059Z 22012KT 24/M03 A3011 RMK A01 T02401029  RH  017%=      5-min Rain = 0
KMC5 092100Z 23010KT 24/M03 A3011 RMK A01 T02401032  RH  016%=      5-min Rain = 0
KMC5 092101Z 22009KT 24/M03 A3011 RMK A01 T02401030  RH  016%=      5-min Rain = 0
KMC5 092102Z 22011KT 24/M03 A301 RMK A01 T02401030  RH  016%=      5-min Rain = 0
KMC5 092103Z 22009KT 24/M03 A301 RMK A01 T02401028  RH  017%=      5-min Rain = 0
KMC5 092104Z 22009KT 24/M03 A301 RMK A01 T02401031  RH  016%=      5-min Rain = 0
KMC5 092105Z 22008KT 24/M03 A301 RMK A01 T02401032  RH  016%=      5-min Rain = 0
KMC5 092106Z 21007KT 24/M03 A301 RMK A01 T02401031  RH  016%=      5-min Rain = 0
KMC5 092107Z 21009KT 24/M03 A301 RMK A01 T02411028  RH  017%=      5-min Rain = 0
KMC5 092108Z 23009KT 24/M03 A301 RMK A01 T02421028  RH  017%=      5-min Rain = 0
KMC5 092109Z 23011KT 24/M03 A301 RMK A01 T02431032  RH  016%=      5-min Rain = 0
KMC5 092110Z 24010KT 24/M04 A301 RMK A01 T02421036  RH  016%=      5-min Rain = 0
KMC5 092111Z 23008KT 24/M04 A301 RMK A01 T02411036  RH  016%=      5-min Rain = 0
KMC5 092112Z 24010KT 24/M04 A301 RMK A01 T02421038  RH  015%=      5-min Rain = 0
KMC5 092113Z 24013KT 24/M04 A301 RMK A01 T02421040  RH  015%=      5-min Rain = 0
KMC5 092114Z 23011KT 24/M04 A301 RMK A01 T02411041  RH  015%=      5-min Rain = 0
KMC5 092115Z 24011KT 24/M04 A301 RMK A01 T02401039  RH  015%=      5-min Rain = 0
KMC5 092116Z 23010KT 24/M04 A301 RMK A01 T02401038  RH  016%=      5-min Rain = 0
KMC5 092117Z 21010KT 24/M04 A301 RMK A01 T02421036  RH  016%=      5-min Rain = 0
KMC5 092118Z 19010KT 24/M04 A301 RMK A01 T02421035  RH  016%=      5-min Rain = 0
KMC5 092119Z 19009KT 24/M03 A301 RMK A01 T02401034  RH  016%=      5-min Rain = 0
KMC5 092120Z 20009KT 24/M03 A301 RMK A01 T02401033  RH  016%=      5-min Rain = 0
KMC5 092121Z 20008KT 24/M04 A301 RMK A01 T02401036  RH  016%=      5-min Rain = 0
KMC5 092122Z 21009KT 24/M03 A301 RMK A01 T02391033  RH  016%=      5-min Rain = 0
KMC5 092123Z 21010KT 24/M04 A301 RMK A01 T02401035  RH  016%=      5-min Rain = 0
KMC5 092124Z 22009KT 24/M03 A301 RMK A01 T02381033  RH  016%=      5-min Rain = 0
KMC5 092125Z 22013KT 24/M03 A301 RMK A01 T02401031  RH  016%=      5-min Rain = 0
KMC5 092126Z 22013KT 24/M03 A301 RMK A01 T02421033  RH  016%=      5-min Rain = 0
KMC5 092127Z 23011KT 24/M04 A301 RMK A01 T02411035  RH  016%=      5-min Rain = 0
KMC5 092128Z 22011KT 24/M04 A301 RMK A01 T02401038  RH  015%=      5-min Rain = 0
KMC5 092129Z 22012KT 24/M04 A301 RMK A01 T02401040  RH  015%=      5-min Rain = 0
KMC5 092130Z 22011KT 24/M04 A301 RMK A01 T02391042  RH  015%=      5-min Rain = 0
KMC5 092131Z 22012KT 24/M04 A301 RMK A01 T02381043  RH  015%=      5-min Rain = 0
KMC5 092132Z 23010KT 24/M04 A301 RMK A01 T02371041  RH  015%=      5-min Rain = 0
KMC5 092133Z 24010KT 24/M04 A301 RMK A01 T02381041  RH  015%=      5-min Rain = 0
KMC5 092134Z 24012KT 24/M04 A301 RMK A01 T02391044  RH  015%=      5-min Rain = 0
KMC5 092135Z 23013KT 24/M04 A301 RMK A01 T02381043  RH  015%=      5-min Rain = 0
KMC5 092136Z 22010KT 24/M04 A301 RMK A01 T02371040  RH  015%=      5-min Rain = 0
KMC5 092137Z 20012KT 24/M04 A3009 RMK A01 T02381037  RH  016%=      5-min Rain = 0
KMC5 092138Z 22008KT 24/M04 A301 RMK A01 T02381036  RH  016%=      5-min Rain = 0
KMC5 092139Z 23011KT 24/M04 A301 RMK A01 T02381039  RH  016%=      5-min Rain = 0
KMC5 092140Z 22009KT 24/M04 A3009 RMK A01 T02381041  RH  015%=      5-min Rain = 0
KMC5 092141Z 22009KT 24/M04 A3009 RMK A01 T02371041  RH  015%=      5-min Rain = 0
KMC5 092142Z 23009KT 24/M04 A3009 RMK A01 T02361043  RH  015%=      5-min Rain = 0
KMC5 092143Z 22009KT 24/M04 A3009 RMK A01 T02371040  RH  016%=      5-min Rain = 0
KMC5 092144Z 22011KT 24/M03 A3009 RMK A01 T02381033  RH  016%=      5-min Rain = 0
KMC5 092145Z 22010KT 24/M03 A3009 RMK A01 T02381030  RH  017%=      5-min Rain = 0
KMC5 092146Z 21010KT 24/M03 A3009 RMK A01 T02381029  RH  017%=      5-min Rain = 0
KMC5 092147Z 20009KT 24/M03 A3009 RMK A01 T02381029  RH  017%=      5-min Rain = 0
KMC5 092148Z 20010KT 24/M03 A3009 RMK A01 T02381028  RH  017%=      5-min Rain = 0
KMC5 092149Z 21010KT 24/M03 A3009 RMK A01 T02381029  RH  017%=      5-min Rain = 0
KMC5 092150Z 22011KT 24/M03 A3009 RMK A01 T02381028  RH  017%=      5-min Rain = 0
KMC5 092151Z 22012KT 24/M03 A3009 RMK A01 T02381025  RH  017%=      5-min Rain = 0
KMC5 092152Z 22010KT 24/M03 A3009 RMK A01 T02371025  RH  017%=      5-min Rain = 0
KMC5 092153Z 22010KT 24/M03 A3009 RMK A01 T02361025  RH  017%=      5-min Rain = 0
KMC5 092154Z 22009KT 24/M02 A3009 RMK A01 T02361023  RH  018%=      5-min Rain = 0
KMC5 092155Z 23008KT 24/M02 A3009 RMK A01 T02351022  RH  018%=      5-min Rain = 0
KMC5 092156Z 22012KT 24/M02 A3009 RMK A01 T02361022  RH  018%=      5-min Rain = 0
KMC5 092157Z 21009KT 24/M02 A3009 RMK A01 T02361021  RH  018%=      5-min Rain = 0
KMC5 092158Z 20010KT 24/M02 A3009 RMK A01 T02361020  RH  018%=      5-min Rain = 0
KMC5 092159Z 19011KT 24/M02 A3009 RMK A01 T02371023  RH  018%=      5-min Rain = 0
KMC5 092200Z 19012KT 24/M02 A3009 RMK A01 T02351021  RH  018%=      5-min Rain = 0
KMC5 092201Z 20012KT 23/M02 A3009 RMK A01 T02341019  RH  018%=      5-min Rain = 0
KMC5 092202Z 20011KT 23/M02 A3009 RMK A01 T02341020  RH  018%=      5-min Rain = 0
KMC5 092203Z 20010KT 23/M02 A3009 RMK A01 T02331019  RH  019%=      5-min Rain = 0
KMC5 092204Z 20013KT 23/M02 A3009 RMK A01 T02331018  RH  019%=      5-min Rain = 0
KMC5 092205Z 20013KT 23/M02 A3009 RMK A01 T02341016  RH  019%=      5-min Rain = 0
KMC5 092206Z 21012KT 23/M01 A3009 RMK A01 T02331013  RH  019%=      5-min Rain = 0
KMC5 092207Z 21011KT 23/M01 A3009 RMK A01 T02331010  RH  020%=      5-min Rain = 0
KMC5 092208Z 21010KT 23/M01 A3009 RMK A01 T02341010  RH  020%=      5-min Rain = 0
KMC5 092209Z 21008KT 23/M01 A3009 RMK A01 T02331009  RH  020%=      5-min Rain = 0
KMC5 092210Z 21010KT 23/M01 A3009 RMK A01 T02341009  RH  020%=      5-min Rain = 0
KMC5 092211Z 22010KT 23/M01 A3009 RMK A01 T02331008  RH  020%=      5-min Rain = 0
KMC5 092212Z 22012KT 23/M01 A3009 RMK A01 T02341008  RH  020%=      5-min Rain = 0
KMC5 092213Z 22011KT 23/M01 A3009 RMK A01 T02341008  RH  020%=      5-min Rain = 0
KMC5 092214Z 22010KT 23/M01 A3009 RMK A01 T02331007  RH  020%=      5-min Rain = 0
KMC5 092215Z 22009KT 23/M01 A3009 RMK A01 T02331006  RH  020%=      5-min Rain = 0
KMC5 092216Z 23011KT 23/M01 A3009 RMK A01 T02331005  RH  021%=      5-min Rain = 0
KMC5 092217Z 22010KT 23/M01 A3009 RMK A01 T02331005  RH  021%=      5-min Rain = 0
KMC5 092218Z 22009KT 23/M01 A3009 RMK A01 T02331007  RH  020%=      5-min Rain = 0
KMC5 092219Z 22009KT 23/M01 A3009 RMK A01 T02321006  RH  020%=      5-min Rain = 0
KMC5 092220Z 22008KT 23/M01 A3009 RMK A01 T02321006  RH  021%=      5-min Rain = 0
KMC5 092221Z 22008KT 23/M01 A3009 RMK A01 T02331005  RH  021%=      5-min Rain = 0
KMC5 092222Z 22009KT 23/M01 A3009 RMK A01 T02331006  RH  020%=      5-min Rain = 0
KMC5 092223Z 22011KT 23/M01 A3009 RMK A01 T02331007  RH  020%=      5-min Rain = 0
KMC5 092224Z 23010KT 23/M01 A3009 RMK A01 T02331007  RH  020%=      5-min Rain = 0
KMC5 092225Z 22012KT 23/M01 A3008 RMK A01 T02331007  RH  020%=      5-min Rain = 0
KMC5 092226Z 21011KT 23/M01 A3008 RMK A01 T02321009  RH  020%=      5-min Rain = 0
KMC5 092227Z 21009KT 23/M01 A3009 RMK A01 T02311010  RH  020%=      5-min Rain = 0
KMC5 092228Z 19008KT 23/M01 A3009 RMK A01 T02321007  RH  020%=      5-min Rain = 0
KMC5 092229Z 20010KT 23/M01 A3009 RMK A01 T02311007  RH  021%=      5-min Rain = 0
KMC5 092230Z 20010KT 23/M01 A3009 RMK A01 T02311007  RH  021%=      5-min Rain = 0
KMC5 092231Z 20009KT 23/M01 A3009 RMK A01 T02311009  RH  020%=      5-min Rain = 0
KMC5 092232Z 21010KT 23/M01 A3009 RMK A01 T02301009  RH  020%=      5-min Rain = 0
KMC5 092233Z 22010KT 23/M01 A3008 RMK A01 T02301009  RH  020%=      5-min Rain = 0
KMC5 092234Z 21010KT 23/M01 A3008 RMK A01 T02301008  RH  020%=      5-min Rain = 0
KMC5 092235Z 21009KT 23/M01 A3008 RMK A01 T02301008  RH  021%=      5-min Rain = 0
KMC5 092236Z 21010KT 23/M01 A3008 RMK A01 T02301008  RH  021%=      5-min Rain = 0
KMC5 092237Z 21008KT 23/M01 A3008 RMK A01 T02301007  RH  021%=      5-min Rain = 0
KMC5 092238Z 20008KT 23/M01 A3008 RMK A01 T02291005  RH  021%=      5-min Rain = 0
KMC5 092239Z 19009KT 23/M00 A3008 RMK A01 T02291004  RH  021%=      5-min Rain = 0
KMC5 092240Z 20007KT 23/M00 A3008 RMK A01 T02281004  RH  021%=      5-min Rain = 0
KMC5 092241Z 19010KT 23/M00 A3008 RMK A01 T02271003  RH  022%=      5-min Rain = 0
KMC5 092242Z 19010KT 23/M01 A3008 RMK A01 T02271007  RH  021%=      5-min Rain = 0
KMC5 092243Z 19010KT 23/M01 A3008 RMK A01 T02261008  RH  021%=      5-min Rain = 0
KMC5 092244Z 20010KT 23/M01 A3008 RMK A01 T02261011  RH  021%=      5-min Rain = 0
KMC5 092245Z 19010KT 23/M01 A3008 RMK A01 T02251013  RH  020%=      5-min Rain = 0
KMC5 092246Z 20008KT 23/M01 A3008 RMK A01 T02251013  RH  020%=      5-min Rain = 0
KMC5 092247Z 19009KT 23/M01 A3008 RMK A01 T02251012  RH  020%=      5-min Rain = 0
KMC5 092248Z 20008KT 23/M02 A3008 RMK A01 T02251015  RH  020%=      5-min Rain = 0
KMC5 092249Z 19008KT 23/M02 A3008 RMK A01 T02251015  RH  020%=      5-min Rain = 0
KMC5 092250Z 19007KT 22/M01 A3008 RMK A01 T02241014  RH  020%=      5-min Rain = 0
KMC5 092251Z 20007KT 22/M02 A3008 RMK A01 T02221015  RH  020%=      5-min Rain = 0
KMC5 092252Z 19007KT 22/M02 A3008 RMK A01 T02221015  RH  020%=      5-min Rain = 0
KMC5 092253Z 19008KT 22/M02 A3008 RMK A01 T02221015  RH  021%=      5-min Rain = 0
KMC5 092254Z 19008KT 22/M02 A3008 RMK A01 T02211015  RH  021%=      5-min Rain = 0
KMC5 092255Z 18009KT 22/M02 A3008 RMK A01 T02201020  RH  020%=      5-min Rain = 0
KMC5 092256Z 19008KT 22/M02 A3008 RMK A01 T02201019  RH  020%=      5-min Rain = 0
KMC5 092257Z 19009KT 22/M02 A3008 RMK A01 T02191019  RH  020%=      5-min Rain = 0
KMC5 092258Z 19009KT 22/M02 A3008 RMK A01 T02191020  RH  020%=      5-min Rain = 0
KMC5 092259Z 19009KT 22/M02 A3008 RMK A01 T02181021  RH  020%=      5-min Rain = 0
KMC5 092300Z 19009KT 22/M02 A3008 RMK A01 T02171022  RH  020%=      5-min Rain = 0
KMC5 092301Z 19010KT 22/M02 A3008 RMK A01 T02171024  RH  020%=      5-min Rain = 0
KMC5 092302Z 19010KT 22/M02 A3008 RMK A01 T02161024  RH  020%=      5-min Rain = 0
KMC5 092303Z 19009KT 22/M03 A3008 RMK A01 T02161025  RH  020%=      5-min Rain = 0
KMC5 092304Z 19009KT 22/M03 A3008 RMK A01 T02151025  RH  020%=      5-min Rain = 0
KMC5 092305Z 19009KT 22/M03 A3008 RMK A01 T02151025  RH  020%=      5-min Rain = 0
KMC5 092306Z 19008KT 22/M03 A3008 RMK A01 T02151025  RH  020%=      5-min Rain = 0
KMC5 092307Z 19008KT 21/M02 A3008 RMK A01 T02141023  RH  020%=      5-min Rain = 0
KMC5 092308Z 19008KT 21/M02 A3008 RMK A01 T02131024  RH  020%=      5-min Rain = 0
KMC5 092309Z 19008KT 21/M02 A3008 RMK A01 T02131024  RH  020%=      5-min Rain = 0
KMC5 092310Z 19008KT 21/M02 A3008 RMK A01 T02111024  RH  020%=      5-min Rain = 0
KMC5 092311Z 19007KT 21/M02 A3008 RMK A01 T02101023  RH  021%=      5-min Rain = 0
KMC5 092312Z 19008KT 21/M02 A3008 RMK A01 T02091023  RH  021%=      5-min Rain = 0
KMC5 092313Z 19008KT 21/M02 A3008 RMK A01 T02071024  RH  021%=      5-min Rain = 0
KMC5 092314Z 18008KT 21/M02 A3008 RMK A01 T02071024  RH  021%=      5-min Rain = 0
KMC5 092315Z 18008KT 21/M03 A3008 RMK A01 T02061025  RH  021%=      5-min Rain = 0
KMC5 092316Z 18008KT 21/M03 A3008 RMK A01 T02061025  RH  021%=      5-min Rain = 0
KMC5 092317Z 18009KT 21/M03 A3008 RMK A01 T02051025  RH  021%=      5-min Rain = 0
KMC5 092318Z 18008KT 20/M03 A3008 RMK A01 T02031025  RH  021%=      5-min Rain = 0
KMC5 092319Z 18008KT 20/M03 A3008 RMK A01 T02031025  RH  021%=      5-min Rain = 0
KMC5 092320Z 18008KT 20/M03 A3008 RMK A01 T02021025  RH  022%=      5-min Rain = 0
KMC5 092321Z 18008KT 20/M03 A3008 RMK A01 T02011025  RH  022%=      5-min Rain = 0
KMC5 092322Z 18008KT 20/M03 A3008 RMK A01 T02011025  RH  022%=      5-min Rain = 0
KMC5 092323Z 18008KT 20/M03 A3008 RMK A01 T02001025  RH  022%=      5-min Rain = 0
KMC5 092324Z 18008KT 20/M03 A3008 RMK A01 T01991026  RH  022%=      5-min Rain = 0
KMC5 092325Z 18009KT 20/M03 A3008 RMK A01 T01991026  RH  022%=      5-min Rain = 0
KMC5 092326Z 18009KT 20/M03 A3008 RMK A01 T01991026  RH  022%=      5-min Rain = 0
KMC5 092327Z 18009KT 20/M03 A3008 RMK A01 T01981026  RH  022%=      5-min Rain = 0
KMC5 092328Z 18009KT 20/M03 A3008 RMK A01 T01971026  RH  022%=      5-min Rain = 0
KMC5 092329Z 19009KT 20/M03 A3008 RMK A01 T01961027  RH  022%=      5-min Rain = 0
KMC5 092330Z 19009KT 20/M03 A3008 RMK A01 T01961027  RH  022%=      5-min Rain = 0
KMC5 092331Z 19009KT 20/M03 A3008 RMK A01 T01951027  RH  022%=      5-min Rain = 0
KMC5 092332Z 18009KT 19/M03 A3008 RMK A01 T01941027  RH  022%=      5-min Rain = 0
KMC5 092333Z 18009KT 19/M03 A3008 RMK A01 T01931028  RH  022%=      5-min Rain = 0
KMC5 092334Z 18010KT 19/M03 A3008 RMK A01 T01921028  RH  022%=      5-min Rain = 0
KMC5 092335Z 18010KT 19/M03 A3008 RMK A01 T01921027  RH  022%=      5-min Rain = 0
KMC5 092336Z 18010KT 19/M03 A3008 RMK A01 T01911028  RH  023%=      5-min Rain = 0
KMC5 092337Z 18010KT 19/M03 A3008 RMK A01 T01901028  RH  023%=      5-min Rain = 0
KMC5 092338Z 18010KT 19/M03 A3008 RMK A01 T01891028  RH  023%=      5-min Rain = 0
KMC5 092339Z 18010KT 19/M03 A3008 RMK A01 T01881028  RH  023%=      5-min Rain = 0
KMC5 092340Z 18010KT 19/M03 A3008 RMK A01 T01881029  RH  023%=      5-min Rain = 0
KMC5 092341Z 18010KT 19/M03 A3008 RMK A01 T01881029  RH  023%=      5-min Rain = 0
KMC5 092342Z 18010KT 19/M03 A3008 RMK A01 T01871029  RH  023%=      5-min Rain = 0
KMC5 092343Z 18010KT 19/M03 A3008 RMK A01 T01861029  RH  023%=      5-min Rain = 0
KMC5 092344Z 18010KT 19/M03 A3008 RMK A01 T01851028  RH  023%=      5-min Rain = 0
KMC5 092345Z 18010KT 18/M03 A3008 RMK A01 T01841029  RH  023%=      5-min Rain = 0
KMC5 092346Z 18010KT 18/M03 A3008 RMK A01 T01831029  RH  023%=      5-min Rain = 0
KMC5 092347Z 18010KT 18/M03 A3008 RMK A01 T01831029  RH  023%=      5-min Rain = 0
KMC5 092348Z 18010KT 18/M03 A3008 RMK A01 T01831029  RH  024%=      5-min Rain = 0
KMC5 092349Z 18010KT 18/M03 A3008 RMK A01 T01821029  RH  024%=      5-min Rain = 0
KMC5 092350Z 18010KT 18/M03 A3008 RMK A01 T01811029  RH  024%=      5-min Rain = 0
KMC5 092351Z 18010KT 18/M03 A3008 RMK A01 T01801030  RH  024%=      5-min Rain = 0
KMC5 092352Z 18010KT 18/M03 A3008 RMK A01 T01791031  RH  024%=      5-min Rain = 0
KMC5 092353Z 18010KT 18/M03 A3008 RMK A01 T01801032  RH  024%=      5-min Rain = 0
KMC5 092354Z 18010KT 18/M03 A3008 RMK A01 T01801031  RH  024%=      5-min Rain = 0
KMC5 092355Z 18010KT 18/M03 A3008 RMK A01 T01781031  RH  024%=      5-min Rain = 0
KMC5 092356Z 18010KT 18/M03 A3008 RMK A01 T01771032  RH  024%=      5-min Rain = 0
KMC5 092357Z 18010KT 18/M03 A3008 RMK A01 T01771032  RH  024%=      5-min Rain = 0
KMC5 092358Z 18010KT 18/M03 A3008 RMK A01 T01771032  RH  024%=      5-min Rain = 0
KMC5 092359Z 18010KT 18/M03 A3008 RMK A01 T01781032  RH  024%=      5-min Rain = 0
KMC5 100000Z 18010KT 18/M03 A3008 RMK A01 T01781032  RH  024%=      5-min Rain = 0
KMC5 100001Z 17010KT 18/M03 A3008 RMK A01 T01761032  RH  024%=      5-min Rain = 0
KMC5 100002Z 17010KT 18/M03 A3008 RMK A01 T01751032  RH  024%=      5-min Rain = 0
KMC5 100003Z 17010KT 17/M03 A3008 RMK A01 T01741032  RH  024%=      5-min Rain = 0
KMC5 100004Z 18010KT 17/M03 A3008 RMK A01 T01731032  RH  024%=      5-min Rain = 0
KMC5 100005Z 18011KT 17/M03 A3008 RMK A01 T01741033  RH  024%=      5-min Rain = 0
KMC5 100006Z 18011KT 18/M03 A3008 RMK A01 T01751032  RH  024%=      5-min Rain = 0
KMC5 100007Z 18010KT 18/M03 A3008 RMK A01 T01751032  RH  024%=      5-min Rain = 0
KMC5 100008Z 18011KT 17/M03 A3008 RMK A01 T01741033  RH  024%=      5-min Rain = 0
KMC5 100009Z 18011KT 17/M03 A3008 RMK A01 T01741033  RH  024%=      5-min Rain = 0
KMC5 100010Z 18011KT 17/M03 A3008 RMK A01 T01741032  RH  024%=      5-min Rain = 0
KMC5 100011Z 18011KT 17/M03 A3008 RMK A01 T01741032  RH  024%=      5-min Rain = 0
KMC5 100012Z 18010KT 17/M03 A3008 RMK A01 T01741032  RH  024%=      5-min Rain = 0
KMC5 100013Z 18010KT 17/M03 A3008 RMK A01 T01741032  RH  024%=      5-min Rain = 0
KMC5 100014Z 18010KT 17/M03 A3008 RMK A01 T01741032  RH  024%=      5-min Rain = 0
KMC5 100015Z 18010KT 17/M03 A3008 RMK A01 T01741032  RH  024%=      5-min Rain = 0
KMC5 100016Z 18010KT 17/M03 A3008 RMK A01 T01731032  RH  024%=      5-min Rain = 0
KMC5 100017Z 18010KT 17/M03 A3008 RMK A01 T01731033  RH  024%=      5-min Rain = 0
KMC5 100018Z 18010KT 17/M03 A3008 RMK A01 T01721033  RH  024%=      5-min Rain = 0
KMC5 100019Z 18010KT 17/M03 A3008 RMK A01 T01721033  RH  025%=      5-min Rain = 0
KMC5 100020Z 18010KT 17/M03 A3008 RMK A01 T01711032  RH  025%=      5-min Rain = 0
KMC5 100021Z 18010KT 17/M03 A3008 RMK A01 T01711032  RH  025%=      5-min Rain = 0
KMC5 100022Z 18010KT 17/M03 A3008 RMK A01 T01711031  RH  025%=      5-min Rain = 0
KMC5 100023Z 18010KT 17/M03 A3008 RMK A01 T01701031  RH  025%=      5-min Rain = 0
KMC5 100024Z 18010KT 17/M03 A3008 RMK A01 T01701030  RH  025%=      5-min Rain = 0
KMC5 100025Z 18010KT 17/M03 A3008 RMK A01 T01691029  RH  026%=      5-min Rain = 0
KMC5 100026Z 19009KT 17/M03 A3008 RMK A01 T01691029  RH  026%=      5-min Rain = 0
KMC5 100027Z 19009KT 17/M03 A3008 RMK A01 T01681028  RH  026%=      5-min Rain = 0
KMC5 100028Z 19008KT 17/M03 A3008 RMK A01 T01671028  RH  026%=      5-min Rain = 0
KMC5 100029Z 19008KT 17/M03 A3008 RMK A01 T01651027  RH  027%=      5-min Rain = 0
KMC5 100030Z 19008KT 16/M03 A3008 RMK A01 T01641026  RH  027%=      5-min Rain = 0
KMC5 100031Z 19009KT 16/M03 A3008 RMK A01 T01621025  RH  028%=      5-min Rain = 0
KMC5 100032Z 19009KT 16/M02 A3008 RMK A01 T01631023  RH  028%=      5-min Rain = 0
KMC5 100033Z 19009KT 16/M02 A3008 RMK A01 T01641022  RH  028%=      5-min Rain = 0
KMC5 100034Z 19009KT 16/M02 A3008 RMK A01 T01641021  RH  028%=      5-min Rain = 0
KMC5 100035Z 19009KT 17/M02 A3008 RMK A01 T01651020  RH  028%=      5-min Rain = 0
KMC5 100036Z 19009KT 16/M02 A3008 RMK A01 T01641020  RH  028%=      5-min Rain = 0
KMC5 100037Z 19010KT 16/M02 A3008 RMK A01 T01631020  RH  028%=      5-min Rain = 0
KMC5 100038Z 19009KT 16/M02 A3008 RMK A01 T01631020  RH  029%=      5-min Rain = 0
KMC5 100039Z 19010KT 16/M02 A3008 RMK A01 T01631020  RH  029%=      5-min Rain = 0
KMC5 100040Z 19010KT 16/M02 A3008 RMK A01 T01631019  RH  029%=      5-min Rain = 0
KMC5 100041Z 19010KT 16/M02 A3008 RMK A01 T01631019  RH  029%=      5-min Rain = 0
KMC5 100042Z 19010KT 16/M02 A3008 RMK A01 T01631019  RH  029%=      5-min Rain = 0
KMC5 100043Z 20009KT 16/M02 A3008 RMK A01 T01621019  RH  029%=      5-min Rain = 0
KMC5 100044Z 20009KT 16/M02 A3008 RMK A01 T01611019  RH  029%=      5-min Rain = 0
KMC5 100045Z 20010KT 16/M02 A3008 RMK A01 T01611019  RH  029%=      5-min Rain = 0
KMC5 100046Z 20010KT 16/M02 A3008 RMK A01 T01611019  RH  029%=      5-min Rain = 0
KMC5 100047Z 20010KT 16/M02 A3008 RMK A01 T01611019  RH  029%=      5-min Rain = 0
KMC5 100048Z 20009KT 16/M02 A3008 RMK A01 T01611019  RH  029%=      5-min Rain = 0
KMC5 100049Z 20009KT 16/M02 A3008 RMK A01 T01611019  RH  029%=      5-min Rain = 0
KMC5 100050Z 20009KT 16/M02 A3008 RMK A01 T01601018  RH  029%=      5-min Rain = 0
KMC5 100051Z 20009KT 16/M02 A3008 RMK A01 T01591019  RH  030%=      5-min Rain = 0
KMC5 100052Z 20009KT 16/M02 A3008 RMK A01 T01581018  RH  030%=      5-min Rain = 0
KMC5 100053Z 20010KT 16/M02 A3008 RMK A01 T01581018  RH  030%=      5-min Rain = 0
KMC5 100054Z 20009KT 16/M02 A3008 RMK A01 T01581017  RH  030%=      5-min Rain = 0
KMC5 100055Z 20009KT 16/M02 A3008 RMK A01 T01581017  RH  030%=      5-min Rain = 0
KMC5 100056Z 20009KT 16/M02 A3008 RMK A01 T01591017  RH  030%=      5-min Rain = 0
KMC5 100057Z 20010KT 16/M02 A3008 RMK A01 T01581016  RH  030%=      5-min Rain = 0
KMC5 100058Z 20010KT 16/M02 A3008 RMK A01 T01581015  RH  030%=      5-min Rain = 0
KMC5 100059Z 20010KT 16/M02 A3008 RMK A01 T01571015  RH  031%=      5-min Rain = 0
KMC5 100100Z 20010KT 16/M01 A3008 RMK A01 T01571013  RH  031%=      5-min Rain = 0
KMC5 100101Z 20010KT 16/M01 A3008 RMK A01 T01571013  RH  031%=      5-min Rain = 0
KMC5 100102Z 20010KT 16/M01 A3008 RMK A01 T01571012  RH  031%=      5-min Rain = 0
KMC5 100103Z 20010KT 16/M01 A3008 RMK A01 T01561012  RH  032%=      5-min Rain = 0
KMC5 100104Z 20010KT 16/M01 A3008 RMK A01 T01551012  RH  032%=      5-min Rain = 0
KMC5 100105Z 20010KT 16/M01 A3008 RMK A01 T01551011  RH  032%=      5-min Rain = 0
KMC5 100106Z 20010KT 15/M01 A3008 RMK A01 T01541011  RH  032%=      5-min Rain = 0
KMC5 100107Z 20010KT 15/M01 A3008 RMK A01 T01541011  RH  032%=      5-min Rain = 0
KMC5 100108Z 20009KT 15/M01 A3008 RMK A01 T01531011  RH  033%=      5-min Rain = 0
KMC5 100109Z 20009KT 15/M01 A3008 RMK A01 T01511011  RH  033%=      5-min Rain = 0
KMC5 100110Z 20010KT 15/M01 A3008 RMK A01 T01501011  RH  033%=      5-min Rain = 0
KMC5 100116Z 20010KT 15/M01 A3008 RMK A01 T01511006  RH  034%=      5-min Rain = 0
KMC5 100117Z 20009KT 15/M01 A3008 RMK A01 T01511006  RH  034%=      5-min Rain = 0
KMC5 100118Z 20010KT 15/M01 A3008 RMK A01 T01511006  RH  034%=      5-min Rain = 0
KMC5 100119Z 20010KT 15/M01 A3008 RMK A01 T01501006  RH  034%=      5-min Rain = 0
KMC5 100120Z 20009KT 15/M01 A3008 RMK A01 T01501006  RH  034%=      5-min Rain = 0
KMC5 100121Z 20009KT 15/M01 A3008 RMK A01 T01491006  RH  035%=      5-min Rain = 0
KMC5 100122Z 21008KT 15/M01 A3008 RMK A01 T01491006  RH  035%=      5-min Rain = 0
KMC5 100123Z 21008KT 15/M01 A3008 RMK A01 T01481006  RH  035%=      5-min Rain = 0
KMC5 100124Z 21008KT 15/M01 A3008 RMK A01 T01481006  RH  035%=      5-min Rain = 0
KMC5 100125Z 21008KT 15/M01 A3008 RMK A01 T01471006  RH  035%=      5-min Rain = 0
KMC5 100126Z 21008KT 15/M01 A3008 RMK A01 T01471006  RH  035%=      5-min Rain = 0
KMC5 100127Z 21008KT 15/M01 A3008 RMK A01 T01471006  RH  035%=      5-min Rain = 0
KMC5 100128Z 21007KT 15/M01 A3008 RMK A01 T01461006  RH  035%=      5-min Rain = 0
KMC5 100129Z 21007KT 15/M01 A3008 RMK A01 T01451006  RH  035%=      5-min Rain = 0
KMC5 100130Z 21008KT 14/M01 A3008 RMK A01 T01441006  RH  036%=      5-min Rain = 0
KMC5 100131Z 21007KT 15/M01 A3008 RMK A01 T01451006  RH  035%=      5-min Rain = 0
KMC5 100132Z 21007KT 15/M01 A3008 RMK A01 T01461005  RH  035%=      5-min Rain = 0
KMC5 100133Z 21007KT 15/M01 A3008 RMK A01 T01481005  RH  035%=      5-min Rain = 0
KMC5 100134Z 21007KT 15/M01 A3008 RMK A01 T01481006  RH  035%=      5-min Rain = 0
KMC5 100135Z 21007KT 15/M01 A3008 RMK A01 T01471005  RH  035%=      5-min Rain = 0
KMC5 100136Z 21008KT 15/M00 A3008 RMK A01 T01461004  RH  036%=      5-min Rain = 0
KMC5 100137Z 21008KT 15/M00 A3008 RMK A01 T01461003  RH  036%=      5-min Rain = 0
KMC5 100138Z 21009KT 15/M00 A3008 RMK A01 T01451002  RH  036%=      5-min Rain = 0
KMC5 100139Z 21009KT 15/M00 A3007 RMK A01 T01451002  RH  037%=      5-min Rain = 0
KMC5 100140Z 21008KT 15/M00 A3008 RMK A01 T01461001  RH  037%=      5-min Rain = 0
KMC5 100141Z 21008KT 15/00 A3007 RMK A01 T014600-0  RH  037%=      5-min Rain = 0
KMC5 100142Z 21008KT 15/00 A3008 RMK A01 T01460000  RH  037%=      5-min Rain = 0
KMC5 100143Z 21008KT 15/00 A3007 RMK A01 T01460000  RH  037%=      5-min Rain = 0
KMC5 100144Z 21008KT 15/00 A3007 RMK A01 T01460000  RH  037%=      5-min Rain = 0
KMC5 100145Z 21008KT 15/00 A3007 RMK A01 T01460001  RH  037%=      5-min Rain = 0
KMC5 100146Z 21008KT 15/00 A3007 RMK A01 T01460001  RH  037%=      5-min Rain = 0
KMC5 100147Z 22007KT 15/00 A3007 RMK A01 T01460002  RH  037%=      5-min Rain = 0
KMC5 100148Z 22007KT 15/00 A3007 RMK A01 T01460002  RH  037%=      5-min Rain = 0
KMC5 100149Z 21008KT 15/00 A3007 RMK A01 T01460002  RH  037%=      5-min Rain = 0
KMC5 100150Z 21007KT 15/00 A3007 RMK A01 T01460002  RH  037%=      5-min Rain = 0
KMC5 100151Z 21007KT 15/00 A3007 RMK A01 T01460002  RH  037%=      5-min Rain = 0
KMC5 100152Z 22007KT 15/00 A3007 RMK A01 T01460002  RH  037%=      5-min Rain = 0
KMC5 100153Z 22007KT 15/00 A3007 RMK A01 T01460002  RH  037%=      5-min Rain = 0
KMC5 100154Z 21006KT 15/00 A3007 RMK A01 T01450002  RH  037%=      5-min Rain = 0
KMC5 100155Z 22006KT 14/00 A3007 RMK A01 T01440001  RH  038%=      5-min Rain = 0
KMC5 100156Z 22006KT 14/00 A3007 RMK A01 T01430001  RH  038%=      5-min Rain = 0
KMC5 100157Z 22006KT 14/00 A3007 RMK A01 T01420001  RH  038%=      5-min Rain = 0
KMC5 100158Z 22006KT 14/00 A3007 RMK A01 T01410001  RH  038%=      5-min Rain = 0
KMC5 100159Z 22006KT 14/00 A3007 RMK A01 T01410001  RH  038%=      5-min Rain = 0
KMC5 100200Z 22006KT 14/00 A3007 RMK A01 T01410001  RH  038%=      5-min Rain = 0
KMC5 100201Z 22006KT 14/00 A3007 RMK A01 T01410001  RH  038%=      5-min Rain = 0
KMC5 100202Z 22006KT 14/00 A3007 RMK A01 T01420002  RH  038%=      5-min Rain = 0
KMC5 100203Z 22006KT 14/00 A3007 RMK A01 T01420001  RH  038%=      5-min Rain = 0
KMC5 100204Z 22006KT 14/00 A3007 RMK A01 T01420001  RH  038%=      5-min Rain = 0
KMC5 100205Z 22006KT 14/00 A3007 RMK A01 T01420002  RH  038%=      5-min Rain = 0
KMC5 100206Z 22006KT 14/00 A3007 RMK A01 T01420002  RH  038%=      5-min Rain = 0
KMC5 100207Z 22006KT 14/00 A3007 RMK A01 T01420002  RH  038%=      5-min Rain = 0
KMC5 100208Z 22006KT 14/00 A3007 RMK A01 T01430002  RH  038%=      5-min Rain = 0
KMC5 100209Z 22006KT 14/00 A3007 RMK A01 T01430002  RH  038%=      5-min Rain = 0
KMC5 100210Z 22007KT 14/00 A3007 RMK A01 T01430002  RH  038%=      5-min Rain = 0
KMC5 100211Z 22006KT 14/00 A3007 RMK A01 T01420002  RH  038%=      5-min Rain = 0
KMC5 100212Z 23006KT 14/00 A3007 RMK A01 T01400002  RH  039%=      5-min Rain = 0
KMC5 100213Z 22006KT 14/00 A3007 RMK A01 T01390002  RH  039%=      5-min Rain = 0
KMC5 100214Z 22006KT 14/00 A3007 RMK A01 T01390002  RH  039%=      5-min Rain = 0
KMC5 100215Z 22007KT 14/00 A3007 RMK A01 T01390003  RH  039%=      5-min Rain = 0
KMC5 100216Z 22008KT 14/00 A3007 RMK A01 T01380003  RH  039%=      5-min Rain = 0
KMC5 100217Z 22008KT 14/00 A3007 RMK A01 T01390003  RH  039%=      5-min Rain = 0
KMC5 100218Z 22009KT 14/00 A3007 RMK A01 T01400004  RH  039%=      5-min Rain = 0
KMC5 100219Z 22009KT 14/01 A3007 RMK A01 T01410005  RH  039%=      5-min Rain = 0
KMC5 100220Z 22009KT 14/01 A3007 RMK A01 T01420005  RH  039%=      5-min Rain = 0
KMC5 100221Z 22009KT 14/01 A3007 RMK A01 T01420005  RH  039%=      5-min Rain = 0
KMC5 100222Z 22009KT 14/01 A3007 RMK A01 T01420005  RH  039%=      5-min Rain = 0
KMC5 100223Z 22009KT 14/01 A3007 RMK A01 T01420005  RH  039%=      5-min Rain = 0
KMC5 100224Z 22009KT 14/01 A3007 RMK A01 T01420005  RH  039%=      5-min Rain = 0
KMC5 100225Z 22008KT 14/01 A3007 RMK A01 T01410006  RH  040%=      5-min Rain = 0
KMC5 100226Z 22008KT 14/01 A3007 RMK A01 T01410006  RH  040%=      5-min Rain = 0
KMC5 100227Z 22008KT 14/01 A3007 RMK A01 T01390005  RH  040%=      5-min Rain = 0
KMC5 100228Z 22008KT 14/01 A3007 RMK A01 T01380005  RH  040%=      5-min Rain = 0
KMC5 100229Z 22008KT 14/01 A3007 RMK A01 T01380006  RH  040%=      5-min Rain = 0
KMC5 100230Z 22009KT 14/01 A3007 RMK A01 T01380006  RH  040%=      5-min Rain = 0
KMC5 100231Z 22009KT 14/01 A3007 RMK A01 T01380006  RH  040%=      5-min Rain = 0
KMC5 100232Z 22009KT 14/01 A3007 RMK A01 T01380006  RH  041%=      5-min Rain = 0
KMC5 100233Z 22009KT 14/01 A3007 RMK A01 T01380006  RH  041%=      5-min Rain = 0
KMC5 100234Z 22009KT 14/01 A3007 RMK A01 T01380006  RH  041%=      5-min Rain = 0
KMC5 100235Z 22008KT 14/01 A3007 RMK A01 T01380007  RH  041%=      5-min Rain = 0
KMC5 100236Z 22008KT 14/01 A3007 RMK A01 T01350006  RH  041%=      5-min Rain = 0
KMC5 100237Z 22008KT 13/01 A3007 RMK A01 T01320005  RH  042%=      5-min Rain = 0
KMC5 100238Z 22009KT 13/01 A3007 RMK A01 T01310006  RH  042%=      5-min Rain = 0
KMC5 100239Z 22009KT 13/01 A3007 RMK A01 T01320006  RH  042%=      5-min Rain = 0
KMC5 100240Z 22009KT 13/01 A3007 RMK A01 T01330007  RH  042%=      5-min Rain = 0
KMC5 100241Z 22009KT 13/01 A3007 RMK A01 T01340006  RH  042%=      5-min Rain = 0
KMC5 100242Z 22009KT 14/01 A3007 RMK A01 T01350007  RH  042%=      5-min Rain = 0
KMC5 100243Z 21009KT 14/01 A3007 RMK A01 T01350007  RH  041%=      5-min Rain = 0
KMC5 100244Z 22010KT 14/01 A3007 RMK A01 T01360007  RH  041%=      5-min Rain = 0
KMC5 100245Z 21010KT 14/01 A3007 RMK A01 T01360007  RH  041%=      5-min Rain = 0
KMC5 100246Z 21010KT 14/01 A3007 RMK A01 T01360007  RH  041%=      5-min Rain = 0
KMC5 100247Z 22010KT 14/01 A3007 RMK A01 T01360008  RH  042%=      5-min Rain = 0
KMC5 100248Z 21010KT 14/01 A3007 RMK A01 T01360008  RH  042%=      5-min Rain = 0
KMC5 100249Z 21010KT 14/01 A3007 RMK A01 T01350007  RH  042%=      5-min Rain = 0
KMC5 100250Z 21009KT 14/01 A3007 RMK A01 T01350007  RH  042%=      5-min Rain = 0
KMC5 100251Z 21009KT 13/01 A3007 RMK A01 T01320007  RH  042%=      5-min Rain = 0
KMC5 100252Z 21008KT 13/01 A3007 RMK A01 T01310007  RH  043%=      5-min Rain = 0
KMC5 100253Z 22008KT 13/01 A3007 RMK A01 T01300007  RH  043%=      5-min Rain = 0
KMC5 100254Z 22008KT 13/01 A3007 RMK A01 T01290007  RH  043%=      5-min Rain = 0
KMC5 100255Z 22007KT 13/01 A3007 RMK A01 T01290006  RH  043%=      5-min Rain = 0
KMC5 100256Z 23006KT 13/01 A3007 RMK A01 T01290006  RH  043%=      5-min Rain = 0
KMC5 100257Z 23006KT 13/01 A3007 RMK A01 T01260006  RH  044%=      5-min Rain = 0
KMC5 100258Z 23006KT 13/01 A3007 RMK A01 T01250005  RH  044%=      5-min Rain = 0
KMC5 100259Z 23006KT 12/01 A3007 RMK A01 T01240005  RH  044%=      5-min Rain = 0
KMC5 100300Z 23006KT 13/01 A3007 RMK A01 T01250006  RH  044%=      5-min Rain = 0
KMC5 100301Z 22006KT 12/01 A3007 RMK A01 T01240005  RH  044%=      5-min Rain = 0
KMC5 100302Z 22007KT 12/01 A3007 RMK A01 T01230005  RH  044%=      5-min Rain = 0
KMC5 100303Z 22007KT 13/01 A3007 RMK A01 T01260006  RH  044%=      5-min Rain = 0
KMC5 100304Z 21008KT 13/01 A3007 RMK A01 T01280006  RH  043%=      5-min Rain = 0
KMC5 100305Z 22009KT 13/01 A3007 RMK A01 T01280006  RH  043%=      5-min Rain = 0
KMC5 100306Z 22009KT 13/01 A3007 RMK A01 T01290007  RH  043%=      5-min Rain = 0
KMC5 100307Z 22009KT 13/01 A3007 RMK A01 T01300007  RH  043%=      5-min Rain = 0
KMC5 100308Z 22008KT 13/01 A3007 RMK A01 T01300007  RH  043%=      5-min Rain = 0
KMC5 100309Z 22006KT 13/01 A3007 RMK A01 T01280006  RH  043%=      5-min Rain = 0
KMC5 100310Z 22007KT 13/01 A3007 RMK A01 T01260005  RH  044%=      5-min Rain = 0
KMC5 100311Z 22007KT 13/01 A3007 RMK A01 T01260005  RH  044%=      5-min Rain = 0
KMC5 100312Z 22007KT 13/01 A3007 RMK A01 T01260006  RH  044%=      5-min Rain = 0
KMC5 100313Z 23006KT 13/01 A3007 RMK A01 T01270006  RH  043%=      5-min Rain = 0
KMC5 100314Z 23006KT 13/01 A3007 RMK A01 T01260005  RH  044%=      5-min Rain = 0
KMC5 100315Z 23007KT 12/01 A3007 RMK A01 T01240005  RH  044%=      5-min Rain = 0
KMC5 100316Z 23006KT 13/01 A3007 RMK A01 T01260005  RH  044%=      5-min Rain = 0
KMC5 100317Z 23005KT 13/01 A3007 RMK A01 T01270005  RH  043%=      5-min Rain = 0
KMC5 100318Z 23006KT 13/01 A3007 RMK A01 T01270005  RH  043%=      5-min Rain = 0
KMC5 100319Z 23005KT 13/01 A3007 RMK A01 T01270005  RH  043%=      5-min Rain = 0
KMC5 100320Z 23005KT 13/00 A3007 RMK A01 T01260004  RH  043%=      5-min Rain = 0
KMC5 100321Z 24005KT 13/01 A3007 RMK A01 T01250005  RH  044%=      5-min Rain = 0
KMC5 100322Z 23006KT 13/01 A3007 RMK A01 T01250005  RH  044%=      5-min Rain = 0
KMC5 100323Z 23005KT 13/01 A3007 RMK A01 T01250005  RH  044%=      5-min Rain = 0
KMC5 100324Z 23006KT 12/00 A3007 RMK A01 T01240004  RH  044%=      5-min Rain = 0
KMC5 100325Z 23005KT 12/01 A3007 RMK A01 T01240005  RH  044%=      5-min Rain = 0
KMC5 100326Z 23005KT 13/01 A3007 RMK A01 T01250005  RH  044%=      5-min Rain = 0
KMC5 100327Z 23005KT 13/01 A3007 RMK A01 T01260005  RH  043%=      5-min Rain = 0
KMC5 100328Z 24005KT 13/01 A3007 RMK A01 T01260005  RH  043%=      5-min Rain = 0
KMC5 100329Z 23005KT 13/01 A3007 RMK A01 T01250005  RH  044%=      5-min Rain = 0
KMC5 100330Z 24005KT 12/00 A3007 RMK A01 T01240004  RH  044%=      5-min Rain = 0
KMC5 100331Z 24005KT 12/00 A3007 RMK A01 T01230004  RH  044%=      5-min Rain = 0
KMC5 100332Z 23006KT 12/01 A3007 RMK A01 T01220005  RH  045%=      5-min Rain = 0
KMC5 100333Z 23006KT 12/00 A3007 RMK A01 T01220004  RH  044%=      5-min Rain = 0
KMC5 100334Z 23006KT 12/00 A3007 RMK A01 T01220004  RH  045%=      5-min Rain = 0
KMC5 100335Z 24006KT 12/00 A3007 RMK A01 T01200004  RH  045%=      5-min Rain = 0
KMC5 100336Z 24006KT 12/01 A3007 RMK A01 T01200005  RH  045%=      5-min Rain = 0
KMC5 100337Z 24006KT 12/00 A3008 RMK A01 T01190004  RH  045%=      5-min Rain = 0
KMC5 100338Z 24006KT 12/00 A3008 RMK A01 T01180004  RH  045%=      5-min Rain = 0
KMC5 100339Z 24006KT 12/00 A3008 RMK A01 T01180004  RH  046%=      5-min Rain = 0
KMC5 100340Z 23006KT 12/00 A3008 RMK A01 T01170004  RH  046%=      5-min Rain = 0
KMC5 100341Z 23006KT 12/00 A3008 RMK A01 T01170004  RH  046%=      5-min Rain = 0
KMC5 100342Z 23006KT 12/01 A3008 RMK A01 T01160005  RH  046%=      5-min Rain = 0
KMC5 100343Z 23006KT 12/01 A3008 RMK A01 T01170005  RH  046%=      5-min Rain = 0
KMC5 100344Z 23006KT 12/01 A3008 RMK A01 T01180005  RH  046%=      5-min Rain = 0
KMC5 100345Z 23006KT 12/01 A3008 RMK A01 T01180005  RH  046%=      5-min Rain = 0
KMC5 100346Z 23006KT 12/01 A3008 RMK A01 T01170005  RH  046%=      5-min Rain = 0
KMC5 100347Z 22006KT 12/01 A3008 RMK A01 T01170005  RH  046%=      5-min Rain = 0
KMC5 100348Z 22007KT 12/01 A3007 RMK A01 T01160005  RH  046%=      5-min Rain = 0
KMC5 100349Z 23006KT 12/01 A3007 RMK A01 T01150005  RH  047%=      5-min Rain = 0
KMC5 100350Z 22007KT 11/01 A3007 RMK A01 T01140005  RH  047%=      5-min Rain = 0
KMC5 100351Z 22007KT 11/01 A3007 RMK A01 T01140006  RH  047%=      5-min Rain = 0
KMC5 100352Z 22006KT 12/01 A3007 RMK A01 T01150006  RH  047%=      5-min Rain = 0
KMC5 100353Z 22006KT 11/01 A3007 RMK A01 T01140006  RH  047%=      5-min Rain = 0
KMC5 100354Z 22007KT 11/01 A3007 RMK A01 T01130006  RH  048%=      5-min Rain = 0
KMC5 100355Z 22007KT 11/01 A3007 RMK A01 T01130005  RH  048%=      5-min Rain = 0
KMC5 100356Z 22007KT 11/01 A3007 RMK A01 T01130005  RH  048%=      5-min Rain = 0
KMC5 100357Z 23007KT 11/01 A3007 RMK A01 T01120005  RH  048%=      5-min Rain = 0
KMC5 100358Z 22006KT 11/01 A3007 RMK A01 T01130005  RH  048%=      5-min Rain = 0
KMC5 100359Z 23007KT 11/01 A3007 RMK A01 T01120005  RH  048%=      5-min Rain = 0
KMC5 100400Z 22007KT 11/01 A3007 RMK A01 T01120005  RH  048%=      5-min Rain = 0
KMC5 100401Z 23007KT 11/01 A3007 RMK A01 T01120005  RH  048%=      5-min Rain = 0
KMC5 100402Z 22008KT 11/01 A3007 RMK A01 T01130006  RH  048%=      5-min Rain = 0
KMC5 100403Z 22008KT 11/01 A3007 RMK A01 T01130006  RH  048%=      5-min Rain = 0
KMC5 100404Z 23007KT 11/01 A3007 RMK A01 T01130005  RH  048%=      5-min Rain = 0
KMC5 100405Z 23007KT 11/01 A3007 RMK A01 T01110005  RH  048%=      5-min Rain = 0
KMC5 100406Z 23007KT 11/01 A3008 RMK A01 T01090005  RH  048%=      5-min Rain = 0
KMC5 100407Z 23007KT 11/01 A3008 RMK A01 T01080005  RH  049%=      5-min Rain = 0
KMC5 100408Z 23007KT 11/01 A3008 RMK A01 T01070005  RH  049%=      5-min Rain = 0
KMC5 100409Z 23007KT 11/01 A3008 RMK A01 T01060005  RH  050%=      5-min Rain = 0
KMC5 100410Z 23006KT 11/01 A3008 RMK A01 T01050005  RH  050%=      5-min Rain = 0
KMC5 100411Z 23006KT 10/01 A3008 RMK A01 T01040005  RH  050%=      5-min Rain = 0
KMC5 100412Z 23006KT 10/01 A3008 RMK A01 T01030005  RH  051%=      5-min Rain = 0
KMC5 100413Z 22006KT 10/01 A3008 RMK A01 T01040006  RH  051%=      5-min Rain = 0
KMC5 100414Z 23007KT 11/01 A3008 RMK A01 T01050006  RH  050%=      5-min Rain = 0
KMC5 100415Z 22006KT 11/01 A3008 RMK A01 T01070007  RH  050%=      5-min Rain = 0
KMC5 100416Z 22007KT 11/01 A3008 RMK A01 T01080006  RH  050%=      5-min Rain = 0
KMC5 100417Z 22007KT 11/01 A3008 RMK A01 T01090007  RH  049%=      5-min Rain = 0
KMC5 100418Z 22007KT 11/01 A3008 RMK A01 T01110007  RH  049%=      5-min Rain = 0
KMC5 100419Z 22008KT 11/01 A3008 RMK A01 T01110007  RH  049%=      5-min Rain = 0
KMC5 100420Z 22007KT 11/01 A3008 RMK A01 T01110008  RH  049%=      5-min Rain = 0
KMC5 100421Z 22007KT 11/01 A3008 RMK A01 T01110008  RH  049%=      5-min Rain = 0
KMC5 100422Z 22007KT 11/01 A3008 RMK A01 T01110008  RH  049%=      5-min Rain = 0
KMC5 100423Z 23006KT 11/01 A3008 RMK A01 T01100008  RH  049%=      5-min Rain = 0
KMC5 100424Z 22008KT 11/01 A3008 RMK A01 T01100007  RH  049%=      5-min Rain = 0
KMC5 100425Z 22008KT 11/01 A3008 RMK A01 T01090008  RH  050%=      5-min Rain = 0
KMC5 100426Z 23006KT 11/01 A3008 RMK A01 T01090009  RH  050%=      5-min Rain = 0
KMC5 100427Z 22007KT 11/01 A3008 RMK A01 T01080008  RH  050%=      5-min Rain = 0
KMC5 100428Z 23007KT 11/01 A3008 RMK A01 T01070008  RH  050%=      5-min Rain = 0
KMC5 100429Z 23008KT 11/01 A3008 RMK A01 T01060007  RH  050%=      5-min Rain = 0
KMC5 100430Z 22007KT 11/01 A3008 RMK A01 T01050007  RH  050%=      5-min Rain = 0
KMC5 100431Z 23007KT 11/01 A3008 RMK A01 T01050007  RH  051%=      5-min Rain = 0
KMC5 100432Z 23008KT 11/01 A3008 RMK A01 T01050009  RH  051%=      5-min Rain = 0
KMC5 100433Z 23007KT 11/01 A3008 RMK A01 T01080009  RH  050%=      5-min Rain = 0
KMC5 100434Z 23007KT 11/01 A3008 RMK A01 T01060008  RH  051%=      5-min Rain = 0
KMC5 100435Z 23007KT 11/01 A3008 RMK A01 T01050009  RH  051%=      5-min Rain = 0
KMC5 100436Z 24007KT 10/01 A3008 RMK A01 T01040009  RH  052%=      5-min Rain = 0
KMC5 100437Z 23007KT 10/01 A3008 RMK A01 T01020009  RH  052%=      5-min Rain = 0
KMC5 100438Z 24007KT 10/01 A3008 RMK A01 T01010009  RH  053%=      5-min Rain = 0
KMC5 100439Z 23007KT 10/01 A3008 RMK A01 T01020009  RH  052%=      5-min Rain = 0
KMC5 100440Z 23007KT 10/01 A3008 RMK A01 T01030009  RH  052%=      5-min Rain = 0
KMC5 100441Z 23007KT 10/01 A3008 RMK A01 T01020010  RH  053%=      5-min Rain = 0
KMC5 100442Z 23007KT 10/01 A3008 RMK A01 T01020010  RH  053%=      5-min Rain = 0
KMC5 100443Z 23007KT 10/01 A3008 RMK A01 T01020010  RH  053%=      5-min Rain = 0
KMC5 100444Z 24007KT 10/01 A3008 RMK A01 T01010010  RH  053%=      5-min Rain = 0
KMC5 100445Z 24007KT 10/01 A3008 RMK A01 T01000010  RH  054%=      5-min Rain = 0
KMC5 100446Z 24007KT 10/01 A3008 RMK A01 T00990010  RH  054%=      5-min Rain = 0
KMC5 100447Z 24007KT 10/01 A3008 RMK A01 T00980011  RH  055%=      5-min Rain = 0
KMC5 100448Z 23008KT 10/01 A3008 RMK A01 T00980012  RH  055%=      5-min Rain = 0
KMC5 100449Z 23008KT 10/01 A3008 RMK A01 T01000014  RH  055%=      5-min Rain = 0
KMC5 100450Z 23008KT 10/01 A3008 RMK A01 T01010014  RH  055%=      5-min Rain = 0
KMC5 100451Z 23008KT 10/02 A3007 RMK A01 T01010015  RH  055%=      5-min Rain = 0
KMC5 100452Z 22009KT 10/02 A3007 RMK A01 T01000015  RH  056%=      5-min Rain = 0
KMC5 100453Z 22009KT 10/02 A3007 RMK A01 T01020017  RH  056%=      5-min Rain = 0
KMC5 100454Z 23009KT 11/02 A3007 RMK A01 T01060019  RH  055%=      5-min Rain = 0
KMC5 100455Z 24008KT 11/02 A3007 RMK A01 T01060018  RH  054%=      5-min Rain = 0
KMC5 100456Z 23008KT 10/02 A3007 RMK A01 T01040017  RH  055%=      5-min Rain = 0
KMC5 100457Z 23008KT 10/02 A3007 RMK A01 T01020017  RH  055%=      5-min Rain = 0
KMC5 100458Z 23008KT 10/02 A3007 RMK A01 T01020017  RH  056%=      5-min Rain = 0
KMC5 100459Z 24008KT 10/02 A3007 RMK A01 T01000016  RH  056%=      5-min Rain = 0
KMC5 100500Z 23008KT 10/02 A3007 RMK A01 T00990016  RH  056%=      5-min Rain = 0
KMC5 100501Z 24008KT 10/02 A3007 RMK A01 T00990017  RH  057%=      5-min Rain = 0
KMC5 100502Z 23007KT 10/02 A3007 RMK A01 T00980016  RH  057%=      5-min Rain = 0
KMC5 100503Z 23007KT 10/02 A3007 RMK A01 T00970016  RH  057%=      5-min Rain = 0
KMC5 100504Z 23007KT 10/02 A3007 RMK A01 T00970016  RH  057%=      5-min Rain = 0
KMC5 100505Z 24007KT 10/02 A3007 RMK A01 T00970016  RH  057%=      5-min Rain = 0
KMC5 100506Z 24007KT 10/02 A3007 RMK A01 T00960015  RH  057%=      5-min Rain = 0
KMC5 100507Z 24006KT 10/02 A3007 RMK A01 T00950015  RH  058%=      5-min Rain = 0
KMC5 100508Z 24007KT 10/02 A3007 RMK A01 T00950015  RH  057%=      5-min Rain = 0
KMC5 100509Z 24006KT 10/02 A3007 RMK A01 T00950015  RH  057%=      5-min Rain = 0
KMC5 100510Z 24007KT 10/02 A3007 RMK A01 T00960015  RH  057%=      5-min Rain = 0
KMC5 100511Z 24007KT 10/02 A3007 RMK A01 T00960015  RH  057%=      5-min Rain = 0
KMC5 100512Z 23007KT 10/02 A3007 RMK A01 T00960015  RH  057%=      5-min Rain = 0
KMC5 100513Z 24007KT 10/02 A3007 RMK A01 T00950015  RH  057%=      5-min Rain = 0
KMC5 100514Z 24007KT 10/01 A3007 RMK A01 T00950014  RH  057%=      5-min Rain = 0
KMC5 100515Z 24007KT 09/02 A3007 RMK A01 T00940015  RH  058%=      5-min Rain = 0
KMC5 100516Z 24007KT 09/02 A3007 RMK A01 T00930015  RH  058%=      5-min Rain = 0
KMC5 100517Z 24007KT 09/02 A3007 RMK A01 T00930015  RH  058%=      5-min Rain = 0
KMC5 100518Z 23007KT 09/02 A3007 RMK A01 T00930015  RH  058%=      5-min Rain = 0
KMC5 100519Z 23007KT 09/02 A3007 RMK A01 T00920016  RH  059%=      5-min Rain = 0
KMC5 100520Z 24007KT 09/02 A3007 RMK A01 T00930017  RH  059%=      5-min Rain = 0
KMC5 100521Z 24007KT 09/02 A3007 RMK A01 T00930017  RH  059%=      5-min Rain = 0
KMC5 100522Z 23007KT 09/02 A3007 RMK A01 T00930016  RH  059%=      5-min Rain = 0
KMC5 100523Z 23007KT 09/02 A3007 RMK A01 T00930017  RH  059%=      5-min Rain = 0
KMC5 100524Z 23006KT 09/02 A3007 RMK A01 T00930017  RH  059%=      5-min Rain = 0
KMC5 100525Z 23006KT 09/02 A3007 RMK A01 T00940017  RH  059%=      5-min Rain = 0
KMC5 100526Z 23006KT 09/02 A3007 RMK A01 T00940017  RH  059%=      5-min Rain = 0
KMC5 100527Z 24006KT 09/02 A3007 RMK A01 T00940017  RH  059%=      5-min Rain = 0
KMC5 100528Z 24006KT 09/02 A3007 RMK A01 T00940017  RH  059%=      5-min Rain = 0
KMC5 100529Z 24006KT 09/02 A3007 RMK A01 T00940017  RH  058%=      5-min Rain = 0
KMC5 100530Z 24006KT 09/02 A3007 RMK A01 T00940016  RH  058%=      5-min Rain = 0
KMC5 100531Z 24006KT 09/02 A3007 RMK A01 T00940017  RH  058%=      5-min Rain = 0
KMC5 100532Z 24006KT 09/02 A3007 RMK A01 T00940017  RH  058%=      5-min Rain = 0
KMC5 100533Z 24006KT 09/02 A3007 RMK A01 T00940016  RH  058%=      5-min Rain = 0
KMC5 100534Z 24006KT 09/02 A3007 RMK A01 T00940016  RH  058%=      5-min Rain = 0
KMC5 100535Z 25006KT 09/02 A3006 RMK A01 T00910015  RH  059%=      5-min Rain = 0
KMC5 100536Z 25006KT 09/02 A3006 RMK A01 T00890015  RH  060%=      5-min Rain = 0
KMC5 100537Z 24006KT 09/02 A3006 RMK A01 T00880015  RH  060%=      5-min Rain = 0
KMC5 100538Z 24006KT 09/01 A3006 RMK A01 T00860014  RH  061%=      5-min Rain = 0
KMC5 100539Z 24006KT 09/02 A3006 RMK A01 T00860015  RH  061%=      5-min Rain = 0
KMC5 100540Z 24006KT 09/02 A3006 RMK A01 T00860016  RH  061%=      5-min Rain = 0
KMC5 100541Z 24006KT 09/02 A3006 RMK A01 T00870016  RH  061%=      5-min Rain = 0
KMC5 100542Z 24006KT 09/02 A3006 RMK A01 T00890017  RH  061%=      5-min Rain = 0
KMC5 100543Z 23006KT 09/02 A3006 RMK A01 T00910017  RH  060%=      5-min Rain = 0
KMC5 100544Z 24006KT 09/02 A3006 RMK A01 T00900017  RH  060%=      5-min Rain = 0
KMC5 100545Z 23007KT 09/02 A3006 RMK A01 T00900017  RH  060%=      5-min Rain = 0
KMC5 100546Z 23007KT 09/02 A3006 RMK A01 T00900017  RH  060%=      5-min Rain = 0
KMC5 100547Z 23007KT 09/02 A3006 RMK A01 T00900017  RH  060%=      5-min Rain = 0
KMC5 100548Z 23006KT 09/02 A3006 RMK A01 T00890017  RH  061%=      5-min Rain = 0
KMC5 100549Z 23006KT 09/02 A3006 RMK A01 T00890018  RH  061%=      5-min Rain = 0
KMC5 100550Z 24006KT 09/02 A3006 RMK A01 T00890018  RH  061%=      5-min Rain = 0
KMC5 100551Z 24006KT 09/02 A3006 RMK A01 T00890018  RH  061%=      5-min Rain = 0
KMC5 100552Z 24006KT 09/02 A3006 RMK A01 T00900018  RH  061%=      5-min Rain = 0
KMC5 100553Z 24006KT 09/02 A3006 RMK A01 T00900018  RH  061%=      5-min Rain = 0
KMC5 100554Z 24006KT 09/02 A3006 RMK A01 T00890017  RH  061%=      5-min Rain = 0
KMC5 100555Z 24006KT 09/02 A3006 RMK A01 T00880017  RH  061%=      5-min Rain = 0
KMC5 100556Z 24006KT 09/02 A3006 RMK A01 T00880017  RH  061%=      5-min Rain = 0
KMC5 100557Z 24006KT 09/02 A3006 RMK A01 T00880017  RH  061%=      5-min Rain = 0
KMC5 100558Z 24006KT 09/02 A3006 RMK A01 T00880017  RH  061%=      5-min Rain = 0
KMC5 100559Z 25007KT 09/02 A3006 RMK A01 T00870017  RH  061%=      5-min Rain = 0

Page generated in 0.1345 seconds.